GFSMA_con_mlcape_057.txt.gz
CAPE
137 257 200 118 3 3 0 0 3 1 0 0 3 9 17 26 9 2 3 5 7 10 8 10 3 1 1 0 0 0 0 0 0 0 0 0 0 0 0 0 0 0 0
111 182 175 161 47 51 13 0 8 0 0 0 1 7 14 17 29 3 3 4 4 2 5 2 3 2 0 0 0 0 0 0 0 0 0 0 0 0 0 0 0 0 0
164 217 240 155 99 102 53 20 1 0 0 0 0 0 3 6 8 19 4 4 1 1 1 1 0 0 0 0 0 0 0 0 0 0 0 0 0 0 0 0 0 0 0
118 115 70 39 28 69 38 8 0 0 0 0 0 0 0 0 1 2 16 19 1 11 0 1 0 0 0 0 0 0 0 0 0 0 0 0 0 0 0 0 0 0 0
52 22 0 2 9 11 3 1 0 0 0 0 0 0 0 0 0 0 0 0 17 9 4 0 0 0 0 0 0 0 0 0 0 0 0 0 0 0 0 0 0 0 0
29 12 0 0 3 0 0 0 0 0 0 0 0 0 0 0 0 0 0 0 0 0 21 25 0 0 2 2 0 0 0 0 0 0 0 0 0 0 0 0 0 0 0
29 4 1 24 55 23 7 9 0 0 0 0 0 0 0 0 0 0 0 0 0 0 0 0 23 0 0 0 0 0 1 3 0 0 0 0 0 0 0 0 0 0 0
40 7 16 9 76 64 69 53 13 2 0 0 0 0 0 0 0 0 0 0 0 0 0 0 0 19 36 5 0 0 3 1 9 9 4 1 0 0 0 0 0 0 0
45 31 32 51 63 106 152 135 111 82 44 8 0 13 28 14 24 0 0 0 0 0 0 0 0 0 3 25 5 0 0 0 0 5 9 8 3 1 2 0 0 0 0
79 23 57 103 116 96 167 195 177 152 141 106 67 21 119 139 140 31 0 0 0 0 0 0 0 0 1 3 7 6 0 0 0 0 0 4 13 15 7 5 10 8 5
44 66 90 106 135 133 128 160 177 215 192 156 154 106 64 84 113 141 85 25 2 0 0 0 0 0 2 4 5 7 0 0 0 0 0 0 0 0 14 28 36 21 23
56 48 92 84 137 197 205 181 165 216 241 181 132 156 101 83 63 70 47 49 49 9 0 0 0 0 0 0 0 0 0 0 0 0 0 0 0 0 0 0 2 13 22
9 38 64 47 123 168 189 159 176 214 237 181 95 159 120 115 126 118 65 37 32 34 0 0 0 0 0 0 0 0 0 0 0 0 0 0 0 0 0 0 0 0 0
0 21 75 76 99 148 189 129 117 142 71 102 107 85 198 51 131 129 72 88 13 0 0 0 0 0 0 0 0 0 0 0 0 0 0 0 0 0 0 0 0 0 0
0 2 32 62 72 72 83 92 141 133 96 106 135 210 154 121 101 97 111 96 19 1 0 0 0 0 0 0 0 0 0 0 0 0 0 0 0 0 0 0 0 0 0
0 6 8 17 27 35 45 58 49 38 34 55 79 98 108 116 96 117 135 46 1 0 1 0 0 0 0 0 0 0 0 0 0 0 0 0 0 0 0 0 0 0 0
0 0 4 9 6 12 13 23 8 0 9 16 37 66 55 99 92 140 50 1 2 1 1 0 0 0 0 0 0 0 0 0 0 0 0 0 0 0 0 0 0 0 0
21 9 0 11 0 0 1 18 19 3 7 23 28 44 49 84 98 53 4 1 0 0 1 0 0 0 0 0 0 0 0 0 0 0 0 0 0 0 0 0 0 0 0
95 25 14 4 0 4 4 4 9 20 25 32 37 51 79 91 76 28 1 1 2 0 1 0 0 1 1 0 0 0 0 0 0 0 0 0 0 0 0 0 0 0 0
132 93 45 2 1 3 1 2 7 12 12 17 34 38 56 93 48 9 1 1 0 1 1 1 1 0 1 0 0 0 0 0 0 0 0 0 0 0 0 0 0 0 0
90 63 53 44 28 6 0 0 0 0 0 3 5 45 50 49 64 2 1 1 1 0 2 2 2 0 0 0 0 0 0 0 0 0 0 0 0 0 0 0 0 0 0
95 81 35 46 48 45 0 0 0 0 0 0 8 29 33 6 0 0 0 0 0 1 2 3 1 0 0 0 0 0 0 0 0 0 0 0 0 0 0 0 0 0 0
101 72 63 65 53 76 10 0 0 0 22 30 8 8 0 0 0 0 0 0 0 0 0 1 1 0 0 0 0 0 0 0 0 0 0 0 0 0 0 0 0 0 0
86 90 101 110 110 114 22 0 0 3 7 6 2 0 0 1 2 1 0 0 0 0 0 0 0 0 0 0 0 0 0 0 0 0 0 0 0 0 0 0 0 0 0
170 156 170 194 110 70 0 0 0 0 0 1 2 2 2 3 3 0 0 1 2 1 0 0 0 0 0 0 0 0 0 0 0 0 0 0 0 0 0 0 0 0 0
65 0 0 0 0 0 2 1 1 1 1 4 6 6 2 3 2 1 0 0 0 1 0 0 0 0 0 0 0 0 0 0 0 0 0 0 0 0 0 0 0 0 0

GFSMA_con_mlcape_060.txt.gz
CAPE
21 57 65 0 0 0 0 0 0 0 0 0 10 7 21 2 0 0 0 0 3 6 4 2 2 1 0 0 0 0 0 0 0 0 0 0 0 0 0 0 0 0 0
8 45 117 9 0 0 0 0 1 0 0 0 0 0 17 6 0 0 0 0 0 2 5 4 1 1 1 0 0 0 0 0 0 0 0 0 0 0 0 0 0 0 0
1 110 135 55 23 5 0 0 3 0 1 0 0 2 0 19 0 0 0 0 0 0 0 0 0 0 0 0 0 0 0 0 0 0 0 0 0 0 0 0 0 0 0
69 116 131 105 53 38 21 19 0 0 0 0 0 0 0 0 13 0 0 0 0 0 0 0 0 0 0 0 0 0 0 0 0 0 0 0 0 0 0 0 0 0 0
78 65 61 82 99 58 31 12 0 0 0 3 0 0 0 0 0 1 5 0 0 0 0 0 0 0 0 0 0 1 0 0 0 0 0 0 0 0 0 0 0 0 0
15 1 11 0 4 15 13 1 0 0 0 1 0 0 0 0 0 0 0 2 0 0 0 0 0 0 0 0 0 0 2 0 0 0 0 0 0 0 0 0 0 0 0
5 8 3 4 3 2 0 2 3 0 0 0 3 0 0 0 0 0 0 0 0 0 5 5 0 0 0 0 0 0 1 4 3 0 0 0 0 0 0 0 0 0 0
6 1 12 4 10 55 18 14 0 5 0 0 0 0 0 0 0 0 0 0 0 0 0 0 0 0 0 0 0 0 0 1 3 7 2 0 0 0 0 0 0 0 0
0 0 16 43 43 70 5 26 17 11 0 0 0 0 0 0 0 0 0 0 0 0 0 0 0 1 0 0 0 0 2 0 0 0 4 1 1 0 0 0 0 0 0
14 18 51 36 4 24 81 86 64 59 26 0 0 0 0 55 51 6 0 0 0 0 0 0 0 0 0 1 0 0 0 0 0 0 0 3 4 4 5 6 8 5 2
73 30 31 85 25 0 30 77 113 97 102 98 22 25 1 33 85 56 4 0 0 0 0 0 0 0 0 0 0 1 2 0 0 0 0 0 2 15 11 14 20 24 18
72 75 25 40 85 93 26 62 117 136 120 156 132 120 84 77 43 62 60 44 5 0 0 0 0 0 0 0 0 0 0 0 0 0 0 0 0 0 0 4 4 16 24
19 50 32 18 61 54 73 68 75 87 168 130 131 74 75 42 31 51 38 31 26 16 0 0 0 0 0 0 0 0 0 0 0 0 0 0 0 0 0 0 0 0 1
0 14 19 6 20 39 52 117 81 83 86 130 76 39 73 70 44 30 2 32 31 34 3 0 0 0 0 0 0 0 0 0 0 0 0 0 0 0 0 0 0 0 0
0 4 19 8 6 25 60 107 101 86 60 86 62 81 56 51 82 30 65 65 28 0 2 0 0 0 0 0 0 0 0 0 0 0 0 0 0 0 0 0 0 0 0
0 0 4 35 31 31 56 108 99 45 65 73 80 37 68 52 83 51 46 46 50 37 10 0 0 0 0 0 0 0 0 0 0 0 0 0 0 0 0 0 0 0 0
0 0 0 1 7 36 46 57 48 51 54 55 50 40 81 112 48 71 93 74 39 22 17 0 0 0 0 0 0 0 0 0 0 0 0 0 0 0 0 0 0 0 0
0 0 0 0 0 0 4 11 14 12 17 20 22 27 24 39 40 46 79 78 51 24 13 0 0 0 0 0 0 0 1 0 0 0 0 0 0 0 0 0 0 0 0
14 7 0 0 0 0 0 0 4 3 2 0 0 0 0 10 15 27 46 53 58 37 16 0 1 0 1 0 3 0 0 0 0 0 0 0 0 0 0 0 0 0 0
12 31 27 3 0 0 0 0 0 0 0 0 0 0 0 20 14 12 18 33 13 2 0 1 1 0 1 2 1 0 2 0 0 0 0 0 0 0 0 0 0 0 0
116 80 70 36 26 15 0 0 0 0 0 0 0 0 0 14 16 17 23 7 0 1 1 2 1 0 1 1 0 2 1 0 0 0 0 0 0 0 0 0 0 0 0
114 147 138 95 71 40 27 4 3 3 1 2 5 2 4 0 0 4 5 1 0 0 1 3 3 2 3 3 2 0 0 0 0 0 0 0 0 0 0 0 0 0 0
186 144 116 111 91 70 42 12 0 0 11 15 2 1 1 0 0 0 0 0 1 0 1 2 1 2 1 1 0 0 0 0 0 0 0 0 0 0 0 0 0 0 0
179 152 117 77 58 48 36 26 2 4 2 2 10 30 17 0 0 0 1 7 6 3 1 0 0 1 0 0 0 0 0 0 0 0 0 0 0 0 0 0 0 0 0
198 158 114 84 45 48 0 1 0 0 0 0 0 0 1 1 5 3 2 5 8 4 4 3 2 0 0 0 0 0 0 0 0 0 0 0 0 0 0 0 0 0 0
199 83 0 0 0 0 0 0 0 0 0 0 14 8 3 4 3 4 3 4 2 2 0 0 0 0 0 0 0 0 0 0 0 0 0 0 0 0 0 0 0 0 0

GFSMA_con_mlcape_063.txt.gz
CAPE
24 0 1 1 0 0 0 0 0 0 0 0 0 0 0 0 0 0 0 0 0 6 5 4 2 1 0 0 0 0 0 0 0 0 0 0 0 0 0 0 0 0 0
15 0 0 0 0 0 0 0 0 0 0 0 0 0 0 0 0 0 0 0 0 0 2 2 2 0 0 0 0 1 0 0 0 0 0 0 0 0 0 0 0 0 0
1 9 0 0 0 0 0 0 0 0 0 0 0 0 0 0 0 0 0 0 0 0 0 0 0 1 1 0 0 0 0 0 0 0 0 0 0 0 0 0 0 0 0
0 17 1 0 1 0 0 0 0 0 0 0 2 0 0 0 0 0 0 0 0 0 0 0 0 0 0 1 0 0 0 0 0 0 0 0 0 0 0 0 0 0 0
0 13 22 0 19 0 0 0 0 0 0 0 0 0 0 0 0 0 0 0 0 0 0 0 0 0 0 0 1 0 0 0 0 0 0 0 0 0 0 0 0 0 0
3 26 32 0 40 29 15 10 0 0 0 0 0 0 0 0 0 0 0 0 0 0 0 0 0 0 0 0 0 0 0 0 0 0 0 0 0 0 0 0 0 0 0
2 0 21 24 5 37 18 0 3 0 0 0 0 0 0 0 0 0 0 0 0 0 0 0 0 0 0 0 0 0 0 0 0 0 0 0 0 0 0 0 0 0 0
0 0 1 8 0 24 4 2 6 5 2 0 0 0 0 0 0 0 0 0 0 0 1 0 0 0 0 0 0 0 0 0 1 2 0 0 0 0 0 0 0 0 0
0 0 0 0 0 1 1 5 10 3 6 0 0 0 0 0 0 0 0 0 0 0 0 0 3 0 0 0 0 0 0 0 0 0 0 0 0 0 0 0 0 0 0
0 0 0 0 0 10 26 17 7 0 0 4 0 0 0 0 0 0 0 0 0 0 0 0 0 0 0 0 0 0 0 0 0 0 0 3 0 0 0 0 0 2 2
0 0 0 0 1 16 28 16 0 0 1 1 0 0 0 0 0 0 0 0 0 0 0 0 0 0 0 0 0 0 0 0 0 0 0 0 4 1 0 0 0 1 14
0 0 0 0 0 0 7 63 5 3 1 18 19 0 0 0 0 0 1 0 0 0 0 0 0 0 0 0 0 0 0 0 0 0 0 0 0 10 16 5 7 23 26
0 0 0 5 26 7 0 7 70 54 31 15 46 65 24 8 21 28 23 11 23 2 0 0 0 0 0 0 0 0 0 0 0 0 0 0 0 3 14 17 21 31 29
0 2 0 0 5 36 60 47 25 87 79 48 77 72 60 55 57 50 26 19 13 27 15 0 0 0 0 0 0 0 0 0 0 0 0 0 0 0 3 2 2 1 0
0 0 0 10 0 6 42 75 99 60 83 92 70 71 54 45 23 1 25 29 13 0 0 0 0 0 0 0 0 0 0 0 0 0 0 0 0 0 0 0 0 0 0
0 0 0 0 5 4 8 54 70 65 62 33 33 37 47 50 31 17 21 19 18 21 13 0 0 0 0 0 0 0 0 0 0 0 0 0 0 0 0 0 0 0 0
0 0 0 0 0 0 0 0 18 28 27 19 2 0 1 13 9 8 13 13 9 1 3 0 0 0 0 0 0 0 0 0 0 0 0 0 0 0 0 0 0 0 0
0 0 0 0 0 0 0 0 0 2 3 0 0 0 0 0 0 5 1 2 2 5 8 19 23 0 0 0 0 0 0 0 0 0 0 0 0 0 0 0 0 0 0
0 0 0 0 0 0 0 0 0 0 0 0 0 0 0 0 0 0 2 4 2 9 22 23 26 0 0 0 0 0 0 1 1 0 0 0 0 0 0 0 0 0 0
0 0 0 0 0 0 0 0 0 0 0 0 0 0 0 0 0 0 2 2 5 6 9 13 5 0 0 0 2 1 2 4 1 0 0 0 0 0 0 0 0 0 0
1 0 0 0 0 0 0 0 0 0 0 0 0 0 0 0 0 0 1 5 1 0 11 18 2 0 0 0 0 1 3 2 3 0 0 0 0 0 0 0 0 0 0
0 2 0 0 3 0 0 0 0 0 0 0 0 0 0 0 0 0 0 4 10 8 17 16 2 0 0 3 2 1 2 3 3 0 0 0 0 0 0 0 0 0 0
30 11 17 25 9 18 4 0 0 0 0 0 0 0 0 0 0 0 0 0 0 0 0 4 9 0 0 1 2 1 0 0 0 0 0 0 0 0 0 0 0 0 0
77 73 59 46 60 78 17 3 0 0 0 0 0 0 2 0 0 0 0 0 8 12 4 3 3 5 2 1 0 1 0 1 1 0 0 0 0 0 0 0 0 0 0
97 102 115 85 59 81 36 39 5 0 3 0 0 0 0 0 0 0 0 6 19 12 6 5 4 2 2 1 1 0 1 0 0 0 0 0 0 0 0 0 0 0 0
89 56 6 0 0 0 0 0 0 0 0 0 4 4 3 1 7 8 9 9 7 3 1 1 0 3 1 2 1 1 0 0 1 0 0 0 0 0 0 0 0 0 0

GFSMA_con_mlcape_066.txt.gz
CAPE
35 17 16 3 0 0 0 0 0 0 0 0 0 0 0 0 0 0 0 0 1 3 3 4 2 1 2 3 2 1 0 0 0 0 0 0 0 0 0 0 0 0 0
8 7 0 0 0 0 0 0 0 0 0 0 0 0 0 0 0 0 0 0 0 3 4 2 1 0 1 0 1 0 0 0 0 0 0 0 0 0 0 0 0 0 0
1 0 0 0 0 0 0 0 0 0 0 0 0 0 0 0 0 0 0 0 0 0 1 0 1 0 0 0 0 0 0 0 0 0 0 0 0 0 0 0 0 0 0
1 0 0 0 0 0 0 0 0 0 0 0 0 0 0 0 0 0 0 0 0 0 0 0 0 0 0 0 0 0 0 0 0 0 0 0 0 0 0 0 0 0 0
1 0 0 0 0 0 0 0 0 0 0 0 0 0 0 0 0 0 0 0 0 0 0 0 0 0 0 0 0 0 0 0 0 0 0 0 0 0 0 0 0 0 0
26 1 0 0 0 0 0 0 0 0 0 0 0 0 0 0 0 0 0 0 0 0 0 0 0 0 0 0 0 0 0 0 0 0 0 0 0 0 0 0 0 0 0
3 24 0 0 0 0 0 0 0 0 0 0 1 0 0 0 0 0 0 0 0 0 0 0 0 0 0 0 0 0 0 1 0 0 0 0 0 0 0 0 0 0 0
0 9 11 0 9 0 0 0 0 0 0 2 2 3 7 0 0 0 0 0 0 0 0 0 0 0 0 0 0 0 0 0 5 5 0 0 0 0 0 0 0 0 0
0 1 18 5 15 21 0 0 0 0 0 0 3 0 0 0 0 0 0 0 0 0 0 0 0 0 0 0 0 0 0 0 0 8 7 0 0 0 0 1 0 0 0
1 0 3 0 14 25 8 0 0 0 0 7 2 2 0 0 1 0 0 0 0 0 0 5 5 0 0 0 0 0 0 0 0 0 0 6 1 0 0 0 0 0 0
0 0 0 6 2 33 10 2 0 1 0 2 0 0 0 0 0 0 0 0 0 0 0 0 0 0 0 0 0 0 0 0 0 0 0 8 35 7 0 0 0 0 1
0 0 0 13 8 0 0 0 0 4 0 1 0 0 0 0 0 0 3 2 0 0 0 0 0 0 0 0 0 0 0 0 0 0 0 0 22 62 82 7 1 0 5
0 0 0 0 1 0 0 25 9 10 4 0 2 0 0 0 0 0 0 0 0 0 0 0 0 0 0 0 0 0 0 0 0 0 0 1 4 21 48 79 57 25 34
0 0 0 0 0 0 0 5 76 36 1 0 4 9 11 7 0 1 7 20 18 9 0 0 0 0 0 0 0 0 0 0 0 0 0 0 0 0 0 2 13 33 39
0 0 0 0 0 0 2 1 2 28 47 19 7 4 29 24 50 59 40 37 23 0 0 0 0 0 0 0 0 0 0 0 0 0 0 0 0 0 0 0 0 0 7
0 1 0 0 0 0 4 24 22 11 3 1 29 47 37 29 29 26 25 22 6 0 0 0 0 0 0 0 0 0 0 0 0 0 0 0 0 0 0 0 0 0 0
0 0 0 0 0 0 0 0 8 18 15 15 9 15 16 21 29 20 14 24 14 7 9 1 0 0 0 0 0 0 0 0 0 0 0 0 0 0 0 0 0 0 0
0 0 0 0 0 0 0 0 0 0 0 8 14 9 0 2 10 11 2 1 2 0 3 0 0 0 0 0 0 0 0 0 0 0 0 0 0 0 0 0 0 0 0
0 0 0 0 0 0 0 0 0 0 0 0 0 0 0 0 0 0 0 0 0 0 0 0 0 0 0 0 0 0 0 0 0 0 0 0 0 0 0 0 0 0 0
0 0 0 0 0 0 0 0 0 0 0 0 0 0 0 0 0 0 0 0 0 0 0 0 0 1 0 0 0 0 0 0 0 1 1 0 0 0 0 0 0 0 0
0 0 0 0 0 0 0 0 0 0 0 0 0 0 0 0 0 0 0 0 2 7 6 5 9 9 3 0 0 0 1 1 1 2 1 2 0 0 0 0 0 0 0
0 0 1 1 1 0 0 0 0 0 0 0 0 0 0 0 0 0 0 0 0 0 1 6 3 6 4 0 0 0 1 1 1 0 1 0 0 0 0 1 1 0 0
0 0 1 0 0 0 0 0 0 0 0 0 0 0 0 0 0 0 0 0 0 0 0 0 3 4 3 1 1 0 1 1 0 1 0 0 0 0 0 0 0 0 0
1 0 0 0 0 0 0 0 0 0 0 0 0 0 0 0 0 0 0 0 0 2 1 1 0 4 3 2 1 1 1 1 2 1 0 0 0 0 0 0 0 0 0
1 1 0 1 1 0 0 0 0 0 0 0 0 0 0 0 0 0 0 0 7 15 7 8 7 3 1 2 0 0 1 0 0 1 0 1 1 0 0 0 0 0 0
0 0 26 7 7 3 0 0 0 0 0 0 0 0 0 0 0 0 0 4 7 19 7 3 3 3 3 3 0 1 0 0 0 0 0 0 0 0 0 0 0 0 0

GFSMA_con_mlcape_069.txt.gz
CAPE
29 66 52 20 5 0 0 0 0 0 0 0 0 0 0 0 0 0 0 7 9 12 12 8 4 4 2 3 2 1 1 1 1 0 0 0 0 0 0 0 0 0 0
72 31 20 1 0 0 0 0 0 0 0 0 0 0 0 0 0 0 0 3 9 11 7 5 3 2 4 2 1 1 1 0 0 0 0 0 0 0 0 0 0 0 0
71 20 1 0 0 0 0 0 0 0 0 0 0 0 0 0 0 0 0 0 0 2 4 1 1 2 2 1 0 0 0 0 0 0 0 0 0 0 0 0 0 0 0
42 6 0 0 0 0 0 0 0 0 0 0 0 0 0 0 0 0 0 0 0 0 0 0 1 0 1 1 1 0 0 0 0 0 0 0 0 0 0 0 0 0 0
1 0 0 0 0 0 0 0 0 0 0 0 0 0 0 0 0 0 0 0 0 0 0 0 0 0 0 0 0 0 0 0 0 0 0 0 0 0 0 0 0 0 0
0 0 0 0 0 0 0 0 0 0 0 0 0 0 0 0 0 0 0 0 0 0 0 0 0 0 0 0 0 0 0 1 1 0 1 0 0 0 0 0 0 0 0
0 0 0 0 0 0 0 0 0 0 0 0 0 0 0 0 0 0 0 0 0 0 0 0 0 0 0 0 0 0 1 2 1 1 3 1 0 0 0 0 0 0 0
14 0 0 0 0 0 0 0 0 0 0 0 0 0 0 0 0 0 0 0 0 0 0 0 0 0 0 0 0 0 0 4 4 3 3 1 1 1 0 0 0 0 0
0 4 0 0 0 0 0 0 0 0 0 0 0 0 0 13 0 0 0 0 0 0 0 0 0 0 0 0 0 0 0 0 3 8 6 2 0 0 0 1 0 0 0
0 0 13 0 0 1 3 11 2 0 0 0 0 0 1 2 3 2 0 0 0 0 0 0 0 0 0 0 0 0 0 0 0 0 0 9 9 0 0 0 0 2 0
0 0 0 3 0 12 2 20 15 5 8 8 4 0 0 0 0 0 0 0 0 0 0 0 0 0 0 0 0 0 0 0 0 0 0 0 7 49 20 6 2 0 0
0 0 0 0 2 11 18 13 26 7 2 10 15 5 0 1 0 0 0 0 0 0 0 0 0 0 0 0 0 0 0 0 0 0 0 0 0 8 42 67 29 1 0
1 0 0 0 0 4 24 5 5 0 0 2 9 7 12 1 1 0 7 1 0 0 0 0 0 0 0 0 0 0 0 0 0 0 0 0 0 0 5 22 42 50 40
0 0 0 0 0 0 12 19 2 0 0 0 6 11 12 0 0 0 0 0 0 0 0 0 0 0 0 0 0 0 0 0 0 0 0 0 0 0 0 1 5 23 40
0 0 0 0 0 0 0 0 0 2 0 0 0 11 14 1 0 0 0 0 0 0 0 0 0 0 0 0 0 0 0 0 0 0 0 0 0 0 0 0 0 0 7
0 0 0 0 0 0 0 0 0 0 0 0 0 0 0 0 16 20 8 11 21 17 10 0 0 0 0 0 0 0 0 0 0 0 0 0 0 0 0 0 0 0 0
0 0 0 0 0 0 0 0 0 0 0 2 22 37 17 13 27 24 17 22 27 18 25 5 0 0 0 0 0 0 0 0 0 0 0 0 0 0 0 0 0 0 0
0 0 0 0 1 0 0 0 3 9 7 1 0 0 0 11 13 26 16 13 14 10 14 23 1 0 0 0 0 0 0 0 0 0 0 0 0 0 0 0 0 0 0
0 0 0 0 0 0 0 0 0 0 2 6 11 8 5 15 3 5 12 14 13 8 5 8 3 0 0 0 0 0 0 0 0 0 0 0 0 0 0 0 0 0 0
0 0 0 0 0 0 0 0 0 0 0 0 0 0 0 0 0 0 0 0 1 3 1 0 0 0 0 0 0 0 0 0 0 0 0 0 0 0 0 0 0 0 0
0 0 0 0 0 0 0 0 0 0 0 0 0 0 0 0 0 0 0 0 0 0 0 0 1 0 0 0 0 0 0 0 0 0 0 1 1 1 1 0 0 1 0
0 0 0 0 0 0 0 0 0 0 0 0 0 0 0 0 0 0 0 0 0 0 0 1 0 3 0 5 0 0 0 0 1 0 0 1 1 1 1 1 1 0 1
1 1 1 0 0 0 0 0 0 0 0 0 0 0 0 0 0 0 0 0 0 0 0 0 1 0 0 0 1 0 0 0 0 4 1 1 1 0 2 2 1 0 0
1 1 1 1 1 0 0 0 0 0 0 0 0 0 0 0 0 0 0 0 0 0 0 0 1 0 0 1 0 0 0 2 8 2 1 1 1 2 1 1 0 0 1
4 1 2 1 3 1 0 0 0 0 1 1 0 0 0 0 0 0 0 0 0 1 11 10 11 12 10 8 3 0 1 1 1 2 0 3 1 0 0 0 2 2 0
6 6 3 5 9 6 6 8 3 2 1 1 0 0 0 0 0 0 0 0 0 7 13 6 2 0 2 4 0 1 0 1 0 0 0 0 0 0 0 0 0 0 0

GFSMA_con_mlcape_072.txt.gz
CAPE
30 0 9 37 33 0 0 0 0 0 0 0 0 0 0 0 0 0 1 8 8 5 4 7 9 8 10 8 5 5 3 3 2 3 3 1 0 0 0 0 0 0 0
40 17 27 22 4 0 0 0 0 0 0 0 0 0 0 0 0 0 0 5 5 4 5 2 10 8 10 6 3 3 3 2 1 0 0 0 0 0 0 0 0 0 0
32 63 36 3 2 0 0 0 0 0 0 0 0 0 0 0 0 0 0 0 4 6 6 6 5 6 5 4 3 3 2 1 0 0 0 0 0 0 0 0 0 0 0
78 84 26 3 0 0 0 0 0 0 0 0 0 0 0 0 0 0 0 0 0 0 4 5 5 8 8 5 2 1 1 0 0 0 0 0 0 0 0 0 0 0 0
89 42 3 10 0 0 0 0 0 0 0 0 0 0 0 0 0 0 0 0 0 0 0 2 1 2 3 5 4 1 1 0 0 0 0 0 0 0 0 0 0 0 0
21 8 0 2 0 0 0 0 0 0 0 0 0 0 0 0 0 0 0 0 0 0 0 0 0 0 0 0 2 2 3 2 1 0 0 0 0 0 0 0 0 0 0
1 0 8 1 0 0 0 0 0 0 0 0 0 0 0 0 0 0 0 0 0 0 0 0 0 0 0 0 0 0 1 4 4 3 2 1 0 0 0 0 0 0 0
0 0 1 0 0 0 0 0 0 0 0 0 0 0 0 0 0 0 0 0 0 0 0 0 0 0 0 0 0 0 0 3 6 1 4 5 1 0 0 0 0 0 0
3 0 0 0 0 0 0 0 0 0 0 0 0 0 0 0 0 0 0 0 0 0 0 0 0 0 0 0 0 0 0 0 0 7 14 3 0 0 0 0 0 0 0
4 0 0 0 0 0 0 0 0 0 0 0 0 0 0 0 0 0 0 0 0 0 0 0 0 0 0 0 0 0 0 0 0 0 1 48 47 0 0 0 0 0 0
0 0 0 0 0 0 0 0 0 0 0 0 0 0 0 0 0 0 0 0 0 9 1 7 4 0 0 0 0 0 0 0 0 0 0 0 2 61 86 1 0 0 0
0 1 2 0 0 0 0 0 2 9 22 6 0 6 6 5 5 0 0 0 0 0 1 20 9 3 0 0 0 0 0 0 0 0 0 0 0 1 5 53 64 18 3
1 1 1 0 0 0 0 0 4 4 16 24 28 21 18 28 20 0 2 2 0 2 0 0 0 3 0 0 0 0 0 0 0 0 0 0 0 0 0 5 30 77 67
5 0 0 0 0 0 0 0 3 9 9 12 14 23 17 26 35 27 0 3 0 0 0 0 0 0 0 0 0 0 0 0 0 0 0 0 0 0 0 0 3 16 33
2 0 0 0 0 0 0 0 9 16 11 13 2 0 1 0 29 29 0 5 4 0 0 0 0 0 0 0 0 0 0 0 0 0 0 0 0 0 0 0 0 0 0
0 0 0 1 0 0 0 0 0 4 7 10 5 0 2 0 1 0 0 0 0 0 0 0 0 0 0 0 0 0 0 0 0 0 0 0 0 0 0 0 0 0 0
0 0 0 0 0 0 0 1 0 0 0 2 0 0 0 0 0 0 2 2 2 3 6 0 0 0 0 0 0 0 0 0 0 0 0 0 0 0 0 0 0 0 0
0 0 0 0 0 0 1 4 2 0 0 0 0 2 0 0 0 0 0 0 2 8 29 17 0 1 1 0 0 0 0 0 0 0 0 0 0 0 0 0 0 0 0
0 0 0 0 0 0 0 0 0 0 0 0 0 0 0 1 0 4 11 17 16 19 30 27 21 16 16 1 0 0 0 0 0 0 0 0 0 0 0 0 0 0 0
0 0 0 0 0 0 0 0 0 0 0 0 0 1 1 0 0 0 0 1 1 3 7 12 12 8 7 5 0 0 0 0 0 0 0 0 0 0 0 0 0 0 0
0 0 0 0 0 0 0 0 0 0 0 0 0 0 0 0 0 0 0 0 0 0 0 1 0 0 0 0 0 0 0 0 0 0 0 0 0 0 0 0 0 0 0
0 0 0 0 0 0 0 0 0 0 0 0 0 0 0 0 0 0 0 0 0 0 0 0 0 0 0 0 0 1 0 0 1 0 0 0 0 1 2 1 1 0 0
0 1 1 1 1 0 0 0 0 0 0 0 0 0 0 0 0 0 0 0 0 0 0 0 0 0 1 0 0 0 0 0 0 0 0 0 1 3 4 3 5 3 1
4 6 5 6 3 3 4 2 2 1 1 0 0 0 0 0 0 0 0 0 0 0 0 0 0 0 0 1 0 1 0 0 5 8 1 0 2 3 2 3 4 5 5
4 4 4 6 5 7 9 0 0 1 5 2 1 0 0 0 0 0 0 0 0 0 6 8 2 4 5 3 2 3 1 1 0 2 1 2 0 0 1 1 2 2 2
6 7 5 4 3 6 5 1 0 0 0 2 0 7 10 11 2 1 1 1 1 2 7 5 3 1 2 4 1 2 1 0 0 0 0 1 0 0 0 0 1 1 1

GFSMA_con_mlcape_075.txt.gz
CAPE
63 23 10 76 45 14 101 50 4 0 0 0 0 0 0 0 0 2 8 8 9 6 13 13 8 14 9 12 4 3 7 5 4 3 1 0 0 0 0 0 0 0 0
86 39 25 70 13 6 2 0 0 2 0 0 0 0 0 0 0 5 3 10 5 9 22 13 13 8 7 3 4 5 5 4 2 1 1 0 0 0 0 0 0 0 0
55 10 41 37 7 0 0 0 0 0 0 0 0 0 0 0 0 3 6 11 5 7 9 10 7 9 11 8 9 9 4 3 1 1 0 0 0 0 0 0 0 0 0
69 27 33 23 2 0 0 0 0 0 0 0 0 0 0 0 0 0 2 6 10 11 7 5 5 6 8 4 6 8 4 3 1 0 0 0 0 0 0 0 0 0 0
51 53 19 3 1 0 0 0 0 0 0 0 0 0 0 0 0 0 1 6 14 13 12 7 2 2 8 6 7 5 6 2 1 0 0 0 0 0 0 0 0 0 0
40 34 8 1 2 0 0 0 0 0 0 0 0 0 0 0 0 0 1 3 8 10 11 14 12 9 3 4 7 5 6 3 2 1 1 0 0 0 0 0 0 0 0
62 2 2 0 1 0 0 0 0 0 0 0 0 2 0 2 0 0 0 1 2 1 4 7 10 10 4 0 1 5 6 7 6 2 2 2 0 0 0 0 0 0 0
7 2 1 1 0 4 0 0 0 0 0 0 0 1 5 3 2 0 0 0 0 0 0 0 0 1 1 2 0 0 1 5 5 4 3 3 1 0 0 0 0 0 0
1 1 2 0 0 0 0 0 0 0 0 0 0 3 2 10 0 1 0 0 0 0 1 0 0 0 0 0 0 0 0 0 0 8 8 2 0 0 0 0 0 0 0
1 0 0 0 0 0 0 0 0 0 0 0 0 0 10 5 25 0 0 0 0 0 1 2 6 4 1 4 2 0 0 0 0 0 8 72 49 2 0 0 0 0 0
1 2 1 0 0 0 0 0 0 0 0 2 0 0 0 0 7 8 1 0 0 0 18 29 28 13 27 6 0 3 1 0 0 0 0 0 0 72 121 13 0 0 0
2 1 1 0 0 0 0 0 0 0 0 0 2 16 6 5 0 0 0 1 18 0 6 3 14 34 15 2 6 19 13 0 0 0 0 0 0 0 0 50 128 74 21
1 2 1 2 0 0 0 0 0 0 0 0 6 16 20 37 30 18 2 1 0 0 0 0 9 13 7 8 35 31 9 0 0 0 0 0 0 0 0 0 8 57 128
0 0 2 1 1 0 0 0 0 0 0 0 15 31 43 40 48 51 28 31 5 0 0 0 2 12 14 37 49 16 0 0 0 0 0 0 0 0 0 0 1 14 38
8 1 1 1 2 0 1 0 0 0 0 2 8 26 15 16 24 19 19 24 1 0 0 3 12 7 6 15 6 5 0 0 0 0 0 0 0 0 0 0 0 0 2
16 6 8 1 0 1 0 1 0 0 0 2 6 4 0 1 12 11 3 3 5 3 1 0 0 1 4 0 0 0 0 0 0 0 0 0 0 0 0 0 0 0 0
1 0 1 2 1 2 1 0 1 1 2 0 0 2 0 0 13 10 7 0 0 0 5 0 0 0 0 0 0 0 0 0 0 0 0 0 0 0 0 0 0 0 0
0 0 0 1 3 2 4 3 3 1 0 1 0 0 0 3 0 5 0 0 1 7 16 6 0 0 8 0 9 26 0 0 0 0 0 0 0 0 0 0 0 0 0
0 0 0 0 0 0 1 0 1 3 3 2 3 1 2 0 0 0 0 1 3 7 24 19 0 10 17 30 12 0 0 1 2 0 0 0 0 0 0 0 0 0 0
1 0 1 1 0 0 0 0 0 0 2 3 0 1 5 6 4 7 14 12 7 8 17 31 24 5 14 6 20 1 1 1 0 0 0 0 0 0 0 0 0 0 0
0 0 0 0 0 0 0 1 0 0 0 0 1 1 1 0 0 0 2 1 5 15 20 29 25 18 3 2 4 3 9 0 0 2 0 1 2 0 1 0 0 0 0
0 0 1 0 0 0 1 0 0 1 0 0 0 1 1 0 0 0 0 0 0 12 14 13 12 16 10 5 2 3 1 4 6 5 1 0 0 0 7 5 4 1 1
2 5 4 3 4 9 2 0 0 0 0 0 1 1 1 2 0 0 0 0 0 0 0 0 1 2 2 0 2 0 1 0 0 0 0 1 4 9 4 3 4 5 5
6 6 6 2 5 5 0 0 0 0 0 2 2 1 0 0 0 0 0 0 0 0 0 0 1 0 1 2 1 2 1 0 2 9 3 0 4 6 1 3 4 4 4
5 6 5 5 7 6 1 0 0 0 0 1 3 7 7 3 2 1 1 0 0 1 6 14 9 7 8 5 1 3 3 3 0 0 0 1 1 1 0 0 1 2 2
4 2 4 3 4 4 3 2 0 4 1 7 6 5 4 4 2 0 1 1 0 6 4 2 0 0 2 3 2 3 2 1 0 0 0 1 1 1 0 0 1 1 1

GFSMA_con_mlcape_078.txt.gz
CAPE
138 122 138 109 35 91 73 206 154 101 123 111 31 19 11 10 5 1 13 10 20 19 15 12 10 7 13 11 10 6 4 4 4 3 2 4 4 3 3 1 0 0 0
133 65 77 68 44 42 65 139 111 96 103 86 51 26 11 1 1 2 6 14 9 18 18 25 21 14 14 15 9 6 3 4 4 5 6 3 4 1 0 0 0 0 0
88 56 48 70 43 32 48 94 77 79 96 62 54 8 1 0 0 2 9 14 11 8 21 27 18 15 14 13 7 4 2 4 4 6 4 2 2 0 0 0 0 0 0
100 77 49 29 15 4 47 63 74 66 62 77 43 15 6 4 0 2 10 30 13 9 14 11 13 11 11 9 4 6 5 3 3 3 2 0 0 0 0 0 0 0 0
87 54 57 23 3 1 5 63 94 87 56 71 32 22 20 12 1 0 18 38 11 9 10 5 10 9 13 13 6 4 5 5 3 2 0 0 0 0 0 0 0 0 0
77 40 65 9 5 1 8 62 72 63 95 77 23 35 35 23 17 8 15 16 14 9 13 17 11 11 8 7 6 4 6 7 4 2 2 0 0 0 0 0 0 0 0
4 72 31 2 2 0 1 21 97 84 64 73 17 38 20 7 12 7 13 11 3 6 9 16 11 4 0 0 4 4 3 8 6 4 3 2 0 0 0 0 0 0 0
27 4 5 3 1 2 0 16 47 70 50 47 26 23 15 21 10 10 14 23 2 0 4 8 8 5 3 0 0 0 3 6 4 6 3 1 1 0 0 0 0 0 0
21 6 2 5 2 2 0 12 36 35 30 33 34 13 27 12 9 10 8 8 3 8 0 1 1 0 0 0 0 0 0 0 5 6 10 5 0 0 0 0 0 0 0
3 0 2 2 1 5 1 5 19 11 23 30 25 43 38 20 10 22 15 4 2 1 1 7 0 2 9 13 6 0 0 0 0 0 4 64 73 21 5 0 0 0 0
2 1 2 2 2 1 24 41 17 30 18 19 13 26 38 40 38 35 10 19 16 3 19 39 8 30 40 45 40 28 4 0 0 0 0 8 19 82 126 66 13 0 0
2 2 1 2 0 0 4 0 0 0 0 6 15 36 46 43 50 50 29 51 39 52 31 33 65 98 99 77 64 48 40 22 0 0 0 0 1 0 0 23 118 111 65
2 1 1 2 0 0 0 1 0 2 0 0 15 26 48 57 75 58 42 31 27 62 52 77 86 80 83 97 85 54 49 26 7 0 0 0 0 0 0 0 0 16 73
12 5 1 1 1 0 0 0 0 0 1 5 9 45 62 73 94 82 79 79 11 19 22 0 1 23 51 44 45 56 70 27 3 0 0 0 0 0 0 0 0 0 0
7 6 2 2 2 0 0 0 0 0 0 0 0 7 36 60 82 82 81 71 53 24 23 27 27 26 40 44 68 101 89 70 7 0 0 0 0 0 0 0 0 0 0
16 23 4 2 1 2 2 0 0 0 0 0 0 0 3 6 39 45 56 54 75 51 33 7 10 4 33 45 50 51 65 42 14 0 0 0 0 0 0 0 0 0 0
9 1 15 11 3 2 2 2 0 0 0 0 0 0 0 5 0 0 12 23 30 33 31 24 6 0 24 26 28 53 48 42 28 0 0 0 0 0 0 0 0 0 0
9 12 12 7 2 1 2 2 2 2 1 0 0 0 0 0 0 0 0 0 0 2 5 0 0 0 4 11 54 61 78 66 58 28 0 0 0 0 0 0 0 0 0
3 5 10 5 5 5 4 4 2 4 7 4 1 0 0 0 0 0 0 0 0 0 0 1 1 9 39 33 32 43 44 68 65 12 0 0 0 0 0 0 0 0 0
18 8 0 1 5 8 6 11 27 30 14 3 32 27 25 20 24 22 38 18 13 16 17 17 7 9 9 0 14 10 5 46 47 20 0 0 0 0 0 0 0 0 0
12 21 22 16 11 1 0 0 6 16 5 13 16 12 19 29 27 28 38 27 38 34 29 25 15 2 4 4 4 9 20 4 7 54 28 47 15 6 0 0 2 1 1
2 1 0 0 1 3 5 3 0 0 0 4 4 8 11 3 0 0 0 0 0 7 29 31 31 32 2 0 1 5 10 17 8 47 30 21 0 7 10 6 3 0 1
1 4 6 6 5 5 1 0 0 0 0 1 2 1 1 0 0 0 0 0 0 0 0 0 2 5 2 1 0 3 2 1 2 2 0 0 6 10 4 2 3 4 2
5 6 6 4 3 4 0 0 0 0 1 2 5 5 3 4 7 4 1 0 1 6 4 3 2 5 10 11 7 8 3 2 2 0 0 0 3 4 1 2 1 2 4
3 3 1 2 2 2 2 0 0 2 5 6 4 3 4 5 5 0 0 1 0 7 6 9 6 6 6 6 2 0 1 2 1 0 0 2 2 2 1 2 1 2 2
0 0 0 0 0 0 3 3 0 3 5 8 3 3 2 3 2 0 0 3 4 12 3 1 1 0 1 2 3 3 3 2 1 0 0 1 2 0 0 1 0 1 2

GFSMA_con_mlcape_081.txt.gz
CAPE
318 98 110 147 88 135 93 109 109 219 137 76 75 21 16 32 30 38 0 0 21 18 17 22 16 14 13 14 12 14 4 5 7 8 4 2 4 5 3 2 1 1 1
344 131 60 97 202 160 68 58 79 124 127 73 58 21 28 20 2 8 5 17 13 18 13 16 17 18 16 19 13 3 6 3 8 7 3 1 1 0 1 0 0 0 0
325 213 197 161 72 81 46 36 77 92 134 96 48 31 32 4 0 7 11 14 15 15 11 14 31 23 25 17 7 5 5 5 6 5 4 2 2 0 0 0 0 0 0
424 105 65 83 65 41 52 52 66 88 58 75 23 47 20 2 2 4 8 7 10 12 6 25 30 16 21 16 7 5 7 5 4 5 2 1 0 0 0 0 0 0 0
242 94 81 30 23 39 56 32 54 80 45 41 20 40 22 10 2 3 10 13 0 5 12 22 21 14 13 13 8 6 7 5 5 4 2 0 0 0 0 0 0 0 0
62 102 42 11 18 22 47 18 40 57 64 29 21 29 25 19 9 8 12 14 5 7 6 4 4 3 5 7 2 5 3 6 5 2 1 0 0 0 0 0 0 0 0
124 130 40 5 3 10 6 17 34 50 47 29 19 17 23 21 26 17 13 2 10 9 20 15 0 0 0 0 0 0 4 7 4 4 2 1 1 0 0 0 0 0 0
29 19 37 5 3 9 10 8 30 44 69 30 15 23 26 30 25 9 3 7 10 22 17 9 4 0 0 0 0 0 0 2 5 7 2 2 1 0 0 0 0 0 0
85 54 12 13 15 1 0 0 24 48 51 20 16 2 20 15 17 21 11 12 15 14 14 8 1 0 0 0 0 0 0 0 0 3 3 0 0 0 0 0 0 0 0
109 77 7 6 8 1 1 0 29 41 31 34 38 42 24 9 9 28 25 10 19 11 11 4 1 0 0 1 0 0 0 0 0 0 1 46 33 13 7 8 10 0 0
0 2 5 2 2 2 1 0 24 24 45 39 55 82 49 40 42 33 13 13 19 8 2 0 0 0 0 0 3 6 0 1 0 0 0 0 42 107 119 68 40 24 10
1 1 1 2 3 3 1 0 24 37 34 31 62 61 54 33 59 35 42 49 26 24 11 16 9 13 27 34 36 28 24 5 0 0 0 1 0 12 39 90 138 130 99
2 0 0 1 0 2 10 7 30 25 41 38 41 27 43 58 51 35 71 57 36 51 82 47 27 67 70 105 120 61 35 25 14 7 12 13 18 17 6 4 13 25 60
2 1 1 1 0 1 2 29 43 43 53 46 35 52 65 53 36 45 20 13 41 47 25 60 94 106 126 133 123 98 76 16 12 15 20 17 13 4 0 0 0 0 0
10 3 1 0 1 0 0 0 5 6 18 28 45 47 68 31 31 64 77 34 54 35 37 38 56 41 54 47 46 72 67 36 25 10 7 0 0 0 0 0 0 0 0
9 26 7 0 1 0 0 0 0 0 0 7 1 2 8 18 25 25 23 16 46 62 42 29 46 26 31 36 17 36 66 60 51 23 6 0 0 0 0 0 0 0 0
19 16 22 7 2 2 2 1 0 0 0 0 0 0 0 0 3 0 0 1 28 30 35 25 26 34 41 34 17 52 92 93 67 19 3 0 0 0 0 0 0 0 0
12 13 15 11 4 2 3 3 2 0 0 0 0 0 0 0 0 0 0 0 0 0 1 0 0 0 0 4 0 2 0 11 67 54 1 0 0 0 0 0 0 0 0
0 2 12 23 15 6 4 2 2 2 2 0 0 1 0 0 0 0 0 0 0 0 0 0 0 0 0 0 0 0 0 3 34 27 14 0 0 0 0 0 0 0 0
2 0 1 3 2 4 3 3 3 3 2 3 2 7 0 0 0 1 1 0 2 0 1 4 2 3 16 6 33 12 4 16 35 38 31 7 2 0 0 0 0 0 0
0 0 1 1 0 0 3 0 0 1 26 36 62 34 41 50 38 6 2 1 10 28 30 47 47 32 22 19 23 13 16 5 10 55 55 129 39 0 0 1 4 4 4
4 4 3 4 5 4 3 1 0 0 0 0 1 0 0 0 0 0 0 0 0 0 18 26 33 27 24 25 19 20 26 36 27 8 0 0 0 9 12 5 4 2 0
5 7 8 6 6 2 0 0 0 0 1 1 1 1 1 3 1 1 0 0 2 9 9 5 1 2 0 3 7 0 3 3 2 0 0 0 3 4 3 1 1 3 4
4 6 5 2 0 0 0 0 0 2 2 3 2 3 4 3 0 0 0 3 5 10 12 9 6 8 8 5 1 2 1 2 2 0 0 0 2 3 2 1 2 2 2
0 1 0 0 1 1 0 0 1 2 3 3 2 1 1 1 0 0 0 1 9 10 4 5 5 4 4 3 0 0 0 0 0 2 0 2 3 2 2 1 0 1 2
0 0 0 0 0 1 2 0 0 1 5 5 2 1 1 2 4 2 5 6 2 5 0 0 0 0 0 1 1 0 0 0 0 0 0 1 0 0 0 0 0 1 1

GFSMA_con_mlcape_084.txt.gz
CAPE
534 406 145 20 42 151 136 134 105 71 96 128 182 154 17 63 37 20 1 0 0 0 14 16 21 6 11 11 8 3 6 2 4 11 6 4 3 4 3 2 1 0 0
583 493 412 227 141 153 146 76 42 57 63 57 69 37 11 40 15 2 0 0 0 3 7 12 8 3 10 12 12 5 6 3 1 3 3 2 3 2 2 0 0 0 0
484 221 166 196 84 135 103 31 39 32 68 63 41 44 34 19 3 0 0 0 1 12 8 18 23 11 10 24 8 6 0 1 4 5 4 2 0 0 0 0 0 0 0
491 247 93 79 170 108 43 18 23 36 58 60 47 26 9 0 0 1 6 0 0 5 8 14 15 20 22 22 1 3 3 7 3 3 5 5 1 0 0 0 0 0 0
342 247 165 133 58 42 38 35 27 36 54 41 29 23 2 0 0 9 1 0 0 1 3 12 15 14 16 9 6 4 5 4 3 4 3 2 0 0 0 0 0 0 0
310 264 115 46 29 31 22 23 30 23 36 8 16 25 19 0 0 3 11 0 0 0 0 0 8 8 7 6 2 4 1 1 3 2 2 2 0 0 0 0 0 0 0
216 133 71 25 20 17 25 35 24 27 34 13 17 25 27 14 3 4 19 8 0 0 0 0 0 0 0 6 1 0 1 1 1 1 0 0 0 0 0 0 0 0 0
143 60 54 11 8 15 15 14 9 31 13 35 12 8 18 18 18 15 10 2 12 7 4 1 0 0 0 0 0 0 0 1 1 1 1 0 0 0 0 0 0 0 0
25 78 80 9 2 5 4 13 4 15 30 32 16 0 2 5 4 14 4 5 16 9 1 15 4 0 0 0 0 0 0 0 0 2 1 0 0 0 0 0 0 0 0
80 88 5 2 2 17 4 10 4 11 32 23 30 12 12 2 0 0 5 3 5 5 3 9 2 3 11 1 0 0 0 0 0 0 4 17 0 0 0 0 0 0 1
69 103 7 4 5 8 3 7 8 7 19 17 21 27 18 45 12 2 0 0 1 7 1 0 7 1 0 0 0 0 0 0 0 0 0 1 65 105 75 55 59 60 51
0 5 4 2 4 5 1 4 3 5 20 30 33 37 54 39 35 34 11 19 4 0 0 0 0 0 0 0 1 1 0 0 0 0 0 0 7 40 91 158 172 146 131
1 1 2 2 2 1 1 2 7 21 17 19 16 54 55 66 49 54 24 33 31 28 19 2 0 0 0 4 0 0 0 0 0 0 0 1 2 6 8 29 76 138 194
0 2 1 0 0 1 1 3 4 12 6 7 27 59 61 62 67 47 38 21 7 36 56 43 39 32 21 0 2 41 42 19 7 0 0 0 0 2 14 31 38 39 44
2 0 0 0 0 1 8 2 1 5 6 2 24 56 76 87 72 44 47 24 15 4 2 10 44 49 47 42 39 54 59 50 29 7 0 1 3 1 5 8 7 9 6
0 1 2 0 0 0 0 0 1 16 15 33 41 57 39 32 48 49 31 7 0 0 0 0 20 5 25 32 32 35 26 6 10 4 0 0 0 1 0 0 0 0 0
20 6 2 1 0 0 0 0 3 8 9 14 23 30 27 24 7 10 0 0 0 0 0 0 0 1 7 5 18 24 26 37 21 7 3 0 1 0 0 0 0 0 0
11 6 11 5 0 0 0 0 0 0 0 0 0 0 0 0 0 0 0 0 0 0 0 0 0 0 0 0 0 4 11 18 13 4 2 1 0 0 2 3 0 0 0
4 2 5 3 3 1 1 1 1 0 0 0 0 0 0 0 0 0 0 0 0 0 1 0 0 0 0 0 0 0 0 0 0 0 0 0 0 0 0 0 0 0 0
0 0 4 0 0 0 0 0 1 2 2 1 0 0 0 0 0 0 0 0 0 0 0 0 0 0 0 0 0 0 0 0 0 3 4 2 0 0 0 1 1 1 1
0 0 0 0 0 2 5 0 0 0 2 1 1 0 0 0 0 0 0 1 0 2 3 5 2 1 1 4 19 1 4 1 3 0 0 0 0 1 4 0 1 2 0
5 3 3 4 5 7 3 0 0 1 0 0 1 3 1 1 1 4 5 1 0 0 0 0 1 1 0 0 1 0 0 1 0 1 0 1 0 2 4 2 1 3 3
6 7 5 1 4 2 0 1 0 0 1 3 3 3 1 2 0 0 2 4 6 2 3 2 1 5 3 7 5 1 3 3 4 0 0 0 2 3 3 3 2 2 3
7 6 3 0 0 1 1 0 0 1 4 2 2 3 2 0 1 0 3 3 5 8 6 6 5 7 7 5 0 0 1 0 1 0 0 1 2 5 1 0 1 1 1
3 4 3 2 2 2 0 2 1 1 4 5 1 1 1 0 0 0 1 4 6 5 3 3 1 1 2 1 0 0 0 0 0 1 2 3 1 0 0 0 0 0 0
1 0 1 1 2 2 0 0 0 0 1 3 2 1 1 2 3 1 1 1 3 4 0 0 0 0 0 0 0 0 1 0 0 0 0 1 0 0 0 0 0 0 0

GFSMA_con_mlcape_087.txt.gz
CAPE
520 198 47 21 3 0 33 74 27 66 145 112 76 55 11 3 11 13 21 9 1 0 5 9 14 12 12 9 2 2 6 10 2 8 5 4 2 7 7 5 3 0 0
550 320 43 0 4 83 120 73 38 70 131 126 77 79 0 0 1 7 6 0 0 0 0 5 4 15 9 12 8 4 5 9 1 11 6 3 3 5 4 0 0 0 0
729 480 237 47 1 113 134 88 41 43 33 45 47 32 1 0 0 0 0 0 0 0 0 8 13 10 4 17 9 2 2 4 2 9 4 2 1 0 0 0 0 0 0
787 536 427 217 95 85 77 78 44 33 19 36 30 24 8 0 0 0 0 0 0 0 0 12 14 13 12 19 2 4 2 2 4 6 5 3 1 0 0 0 0 0 0
672 393 293 236 146 59 31 27 11 19 19 35 28 20 0 0 2 1 0 0 0 0 0 4 7 5 11 14 5 1 2 3 4 4 3 1 0 0 0 0 0 0 0
581 369 170 124 40 12 10 8 0 14 31 19 23 6 0 0 0 1 0 0 0 0 0 2 4 9 6 4 3 5 5 8 6 2 4 2 1 0 0 0 0 0 0
463 218 108 67 11 14 22 19 28 20 20 9 0 1 0 0 0 0 0 0 0 0 0 0 0 0 0 1 0 0 3 5 3 3 3 2 1 0 0 0 0 0 0
269 141 96 35 11 8 21 22 4 16 20 18 1 3 0 1 9 0 5 0 0 0 0 0 0 0 0 0 0 0 0 7 9 6 4 1 0 0 0 0 0 0 0
168 119 59 5 5 4 2 11 13 9 22 22 6 0 0 2 6 16 6 4 1 0 0 0 0 0 0 0 0 0 0 0 5 5 3 0 0 0 0 0 0 0 0
135 141 86 22 16 10 13 6 9 1 15 9 7 0 0 1 0 4 4 4 5 3 2 0 0 0 0 0 0 0 0 0 0 0 3 0 0 0 0 3 5 0 3
52 43 30 26 24 28 23 24 1 7 11 0 0 0 7 20 12 0 0 0 0 0 0 0 0 0 0 0 0 0 0 0 0 0 0 25 82 47 43 52 57 58 57
59 31 21 20 16 28 20 28 13 0 0 8 11 3 15 17 11 13 0 0 0 0 0 0 0 0 0 0 0 0 0 0 0 0 0 0 11 82 160 154 134 142 150
0 3 0 1 13 18 11 19 6 2 0 1 1 15 12 42 65 31 8 1 0 0 0 0 0 0 0 0 0 0 0 0 0 0 0 0 0 0 6 50 135 222 250
0 0 0 0 1 3 1 1 7 4 8 9 7 25 11 40 44 19 8 12 12 13 1 7 8 5 1 9 4 0 0 0 0 0 0 0 1 7 8 12 20 39 70
1 1 2 1 2 1 1 1 6 3 2 6 15 18 20 35 30 50 37 24 5 0 5 1 29 20 24 19 15 16 18 24 2 0 0 0 9 8 6 8 22 24 28
1 2 1 0 0 1 3 1 1 2 3 4 7 13 25 25 34 36 35 14 5 2 1 0 0 0 9 38 24 31 21 31 30 36 14 15 3 0 0 0 0 8 17
0 1 1 0 0 0 0 5 2 2 2 1 4 1 10 15 41 44 34 7 0 0 0 0 0 0 0 0 0 7 13 21 43 28 9 1 0 0 0 0 0 1 1
6 4 4 1 1 0 0 0 1 1 1 1 0 7 8 25 33 16 1 0 0 0 0 0 0 0 0 0 0 0 0 0 0 7 10 4 4 0 0 0 0 0 0
9 16 8 1 4 0 0 0 0 1 0 2 1 6 7 10 8 0 0 0 0 0 0 0 0 0 0 0 0 0 0 0 0 0 0 0 0 0 0 0 0 0 0
0 0 0 0 0 0 0 1 0 0 0 0 0 0 0 0 0 0 0 0 0 0 2 0 0 0 0 0 0 0 0 0 0 0 0 0 0 2 2 3 4 2 2
0 1 2 1 1 0 1 0 0 1 1 0 0 0 2 2 0 0 0 0 0 1 2 1 1 1 0 1 0 1 0 0 0 2 4 4 1 4 5 5 3 6 3
8 3 7 7 5 6 3 0 0 0 0 1 2 5 3 5 4 1 2 8 1 0 0 0 0 0 0 4 4 1 2 0 1 1 0 2 1 5 4 3 2 2 3
5 10 7 3 8 3 1 0 0 2 4 4 3 5 6 2 6 2 1 1 2 2 4 4 2 6 7 8 6 3 4 3 3 0 0 1 2 3 3 2 2 2 2
7 6 6 5 4 5 6 6 5 3 6 6 4 4 5 2 2 5 3 3 5 3 3 1 3 6 4 1 0 2 1 1 1 0 0 2 0 3 0 0 1 0 0
5 6 2 1 3 1 2 4 3 5 5 5 4 3 1 2 3 3 3 3 4 4 2 2 2 0 0 0 0 0 0 0 1 1 0 2 0 0 0 0 0 1 0
4 2 4 3 2 2 1 2 1 3 4 4 2 2 1 2 2 1 0 0 1 1 0 1 0 0 0 0 0 0 0 0 0 0 0 0 0 0 0 0 0 0 0

GFSMA_con_mlcape_090.txt.gz
CAPE
323 250 205 173 162 129 91 0 0 35 47 54 40 33 0 5 63 85 112 143 182 167 232 146 56 19 12 14 18 15 10 7 6 8 8 3 6 6 4 4 5 6 4
338 236 195 251 200 158 118 7 0 8 54 82 42 17 3 0 2 24 47 60 17 29 64 103 52 26 19 10 13 14 11 13 9 13 13 3 3 5 3 2 1 1 3
499 294 242 243 172 146 83 79 10 12 27 65 51 3 0 2 0 0 7 1 0 0 1 8 5 13 14 11 8 6 9 7 7 8 10 1 2 4 4 0 0 0 0
602 441 300 148 102 105 59 50 17 18 9 43 35 9 2 4 0 4 0 0 0 0 0 3 6 10 16 22 13 8 4 2 4 7 9 4 4 3 0 0 0 0 0
685 589 438 290 62 56 122 72 30 25 33 45 36 12 0 0 0 0 0 0 0 0 0 3 8 12 18 14 2 13 10 5 4 3 1 6 7 4 2 0 0 0 0
690 592 451 348 238 92 31 30 8 14 27 32 54 35 0 0 0 0 0 0 0 0 0 0 7 7 9 8 11 8 7 4 6 7 7 7 7 7 2 0 0 0 0
652 532 327 320 314 121 13 1 1 15 13 38 63 6 0 0 0 0 0 0 0 0 0 0 0 0 3 10 2 6 8 16 8 9 9 1 4 5 2 0 0 0 0
444 469 373 237 136 31 3 2 3 0 9 39 16 0 2 0 0 0 0 0 0 0 0 0 0 0 0 0 0 0 7 11 11 7 8 7 6 3 1 0 0 0 0
460 387 326 191 38 4 2 6 5 1 18 1 2 0 1 0 0 0 0 0 0 0 0 0 0 0 0 0 0 0 0 0 8 6 4 2 1 1 0 0 0 0 0
330 252 157 57 17 3 1 2 11 19 21 2 1 0 0 0 0 0 0 0 0 0 0 0 0 0 0 0 0 0 0 0 0 0 4 2 0 0 0 0 0 0 0
156 154 96 61 27 0 4 4 11 2 14 1 0 0 0 0 0 0 0 0 0 0 0 0 0 0 0 0 0 0 0 0 0 0 0 14 25 13 16 4 1 1 15
109 99 121 91 17 1 11 34 33 6 13 0 0 0 0 0 0 0 0 0 0 0 0 0 0 0 0 0 0 0 0 0 0 0 0 0 29 77 105 92 97 104 110
97 82 57 43 25 15 18 48 44 30 11 0 0 0 0 0 1 1 6 4 0 0 0 0 0 0 0 0 0 0 0 0 0 0 0 0 0 0 21 79 159 206 210
63 39 28 30 20 7 15 33 59 39 3 4 0 0 0 2 9 10 12 11 2 0 0 0 0 0 0 0 0 0 1 1 0 0 0 0 0 0 0 4 14 42 75
27 3 0 1 4 0 7 16 12 3 1 1 6 4 2 10 35 14 23 27 37 9 2 2 6 5 0 0 2 0 0 7 6 0 0 0 0 0 5 8 6 1 3
2 0 0 1 1 1 0 3 8 1 1 1 1 2 0 11 8 15 8 12 16 14 17 12 6 0 0 8 12 17 30 33 18 10 1 0 0 3 3 0 0 0 0
0 0 1 1 0 5 1 5 0 1 1 0 1 0 7 3 1 4 0 12 9 14 6 0 0 0 0 0 0 1 1 4 14 2 1 0 0 0 0 0 0 0 0
0 1 1 1 0 0 0 1 1 1 1 1 0 13 0 4 5 0 0 0 8 5 1 0 0 0 0 0 0 0 0 5 4 8 0 0 0 0 0 0 0 0 0
8 9 1 1 3 2 0 0 3 9 0 1 0 2 4 2 0 0 0 0 0 0 0 0 0 0 0 0 0 0 0 0 0 0 0 0 0 0 0 1 0 0 0
0 0 0 0 0 0 0 0 0 0 3 8 0 5 0 1 5 2 4 4 0 0 0 0 0 0 0 0 0 0 0 0 0 0 0 2 5 7 7 6 5 1 1
1 2 0 0 0 0 0 0 0 0 0 0 1 1 1 0 0 0 0 0 0 0 0 2 2 1 0 0 0 1 0 1 0 1 5 6 3 3 4 2 3 3 3
6 6 5 6 4 4 1 2 0 0 0 1 1 5 7 4 7 5 4 5 0 0 1 0 0 0 0 3 4 2 2 2 1 1 1 2 2 4 3 2 1 2 1
6 8 9 6 9 8 4 5 5 6 6 8 7 2 3 4 3 3 9 5 6 6 4 1 1 4 4 7 6 2 4 4 1 2 1 3 2 3 1 1 1 1 0
7 8 8 6 9 8 7 8 4 5 5 4 3 4 3 5 2 2 2 6 6 4 4 5 4 5 3 0 0 0 1 2 1 0 0 1 0 1 0 0 0 1 0
5 5 3 5 6 5 5 6 2 7 7 6 4 3 4 3 4 3 0 4 6 7 1 1 0 0 0 0 0 0 0 0 0 0 0 0 0 0 0 0 0 0 0
4 2 3 2 2 4 4 3 1 3 6 6 3 4 2 3 3 1 0 0 4 5 0 0 0 0 0 0 0 0 0 0 0 0 0 0 0 0 0 0 0 0 0

GFSMA_con_mlcape_093.txt.gz
CAPE
658 517 491 279 119 41 0 40 106 129 42 42 82 57 28 57 67 101 142 126 135 318 352 349 220 66 36 21 27 19 8 5 5 1 5 4 4 3 4 5 4 3 3
407 341 199 129 55 15 7 4 0 53 14 35 70 63 13 40 77 85 104 81 128 130 254 278 221 92 32 21 22 18 14 15 12 3 7 3 2 2 3 4 3 5 5
260 178 70 116 61 32 52 0 0 11 14 21 53 55 5 17 50 52 91 102 115 76 131 162 111 58 34 15 13 15 18 11 12 15 3 7 1 4 3 4 5 6 6
277 160 123 106 51 58 81 12 1 0 22 36 24 41 4 1 7 19 25 29 0 0 6 62 75 35 19 17 16 10 12 11 15 12 8 9 3 4 9 5 5 2 4
465 321 150 105 70 70 41 61 4 0 0 8 13 12 6 10 16 10 14 0 0 0 0 0 0 2 15 17 17 12 16 7 8 13 10 11 8 9 9 3 1 1 2
629 450 245 123 106 87 29 7 22 2 0 0 4 1 1 0 2 3 6 0 0 0 0 0 4 9 17 18 12 19 8 6 11 9 9 3 2 11 7 5 3 1 1
636 550 374 187 98 41 17 15 5 0 0 14 39 0 0 2 1 1 0 0 0 0 0 0 0 0 9 12 10 15 27 24 14 6 6 1 2 0 7 5 3 2 2
645 561 419 262 201 148 48 5 0 2 4 7 33 0 1 0 0 1 0 0 0 0 0 0 0 0 0 7 6 2 17 27 17 5 3 3 2 3 5 4 3 2 2
536 490 360 273 249 60 47 8 0 2 4 8 0 0 2 1 0 0 0 0 0 0 0 0 0 0 0 0 0 0 0 8 11 7 5 5 2 2 0 3 4 2 2
504 451 313 328 264 138 10 0 1 2 0 6 2 0 0 0 0 0 0 0 0 0 0 0 0 0 0 0 0 0 0 0 0 1 2 3 2 2 0 2 2 0 1
402 399 372 329 202 36 7 1 2 2 0 1 3 2 0 0 0 0 0 0 0 0 0 0 0 0 0 0 0 0 0 0 0 0 0 4 7 3 0 0 0 0 0
347 345 279 190 113 42 17 0 2 1 3 6 1 0 0 0 0 0 0 0 0 0 0 0 0 0 0 0 0 0 0 0 0 0 0 0 8 48 62 60 56 41 40
174 176 174 123 33 51 24 10 2 5 7 8 0 0 0 0 0 0 0 7 0 0 0 0 0 0 0 0 0 0 0 0 0 0 0 0 0 4 24 80 112 123 116
105 72 67 74 78 63 35 27 24 22 19 33 2 1 0 0 0 0 0 4 3 2 0 0 0 0 0 0 0 0 0 0 0 0 0 0 0 0 0 0 7 40 82
103 118 89 44 55 57 41 16 34 40 37 20 8 0 0 0 0 0 0 0 0 13 12 5 0 0 0 0 0 0 0 0 0 0 0 0 2 0 0 0 0 0 3
73 63 33 11 10 6 4 3 12 22 51 22 1 1 1 0 0 0 0 0 15 28 21 8 4 2 0 0 0 0 0 0 0 3 1 0 0 0 0 0 0 0 0
50 9 0 0 0 0 1 1 1 4 3 1 1 1 0 0 0 4 1 0 0 8 27 1 0 0 0 0 1 2 0 0 0 0 0 0 0 0 0 0 0 0 0
1 0 0 2 2 0 2 1 0 11 10 1 1 1 1 0 0 0 0 2 0 3 0 8 2 0 0 0 0 0 0 0 0 0 0 0 0 0 0 0 0 0 0
4 3 0 1 3 5 6 4 3 2 1 1 1 1 1 0 0 0 2 0 0 0 0 3 0 0 0 0 0 0 0 0 0 0 0 1 1 2 2 2 5 5 4
0 0 0 0 0 0 4 1 0 2 4 1 4 2 0 0 0 0 0 0 0 0 0 0 0 0 0 0 0 0 0 0 0 1 3 5 6 6 5 4 3 2 3
0 0 0 0 1 0 0 0 0 0 0 0 0 0 0 0 0 0 0 0 1 0 0 0 0 1 1 0 0 0 0 1 2 1 5 5 3 4 4 2 2 1 1
4 3 3 2 3 5 4 1 0 0 0 0 0 2 4 4 2 0 0 0 0 1 0 0 0 2 0 0 1 0 0 2 0 0 2 3 2 4 3 2 1 1 1
7 7 7 6 7 10 5 2 1 2 3 5 6 6 6 10 7 7 13 11 10 7 1 0 0 1 1 6 5 3 3 2 1 1 1 2 2 3 1 1 0 0 0
11 13 11 11 11 8 7 8 8 7 7 6 5 5 7 7 7 4 5 6 10 8 7 7 7 10 5 2 2 2 2 3 2 0 0 1 1 2 0 0 0 0 0
6 7 6 7 6 6 5 6 5 5 9 9 4 2 3 4 6 3 2 9 13 8 2 0 0 0 0 0 0 0 0 0 1 0 0 1 1 0 0 0 0 0 0
3 4 4 3 4 7 6 4 2 3 6 5 4 3 3 4 3 3 2 1 3 5 0 0 0 0 0 0 0 0 0 0 0 0 0 0 0 0 0 0 0 0 0

GFSMA_con_mlcape_096.txt.gz
CAPE
1270 1041 763 577 349 169 144 91 37 24 11 29 66 16 14 12 27 38 157 220 262 463 578 538 455 218 118 85 73 34 12 3 1 0 0 3 2 3 1 2 1 2 5
1105 920 593 406 248 21 1 0 0 8 25 13 19 18 12 26 24 43 151 162 160 149 352 431 334 175 43 44 36 28 23 16 9 8 5 3 3 3 2 1 1 4 3
806 573 379 221 157 3 1 0 0 28 57 37 11 43 9 57 27 51 111 103 157 108 95 243 216 108 78 29 22 23 18 12 10 8 7 2 5 1 2 3 5 5 4
485 341 220 163 25 0 2 0 0 6 43 11 7 36 45 49 22 20 62 117 116 122 110 124 133 53 39 15 17 23 16 10 8 14 6 3 5 6 3 3 4 7 5
361 239 163 117 17 1 2 2 2 0 7 3 2 31 9 31 23 20 24 49 50 28 0 51 56 25 22 14 12 21 18 16 16 16 10 6 6 3 3 1 8 3 2
371 327 211 118 31 2 4 7 1 3 11 8 9 19 8 12 33 33 14 6 11 1 0 0 0 0 1 12 15 13 21 17 19 31 16 11 6 5 5 4 2 2 2
496 533 330 134 39 49 12 6 3 7 5 12 12 0 0 2 4 10 22 2 0 0 0 0 0 0 0 6 18 13 28 28 21 23 22 10 6 5 2 5 3 2 1
649 645 470 247 101 43 21 13 4 22 6 14 6 0 0 1 0 1 0 0 0 0 0 0 0 0 0 4 16 12 21 33 28 24 17 8 5 2 3 8 4 4 2
740 657 467 268 209 77 44 62 42 8 30 21 0 0 1 0 2 0 0 1 0 0 0 0 0 0 0 0 10 6 7 21 24 19 7 4 3 3 3 7 3 3 2
642 674 432 339 257 144 119 91 30 1 1 2 1 0 0 0 0 0 1 0 0 0 0 0 0 0 0 0 0 0 0 0 5 11 8 7 6 4 4 4 1 0 1
479 498 412 309 273 145 102 116 34 9 2 2 2 0 0 0 0 0 0 0 0 0 0 0 0 0 0 0 0 0 0 0 0 0 4 6 9 5 3 2 0 0 0
397 443 428 315 197 151 123 106 39 5 4 4 1 1 0 0 0 0 0 1 1 0 0 0 0 0 0 0 0 0 0 0 0 0 0 0 2 3 5 2 6 9 9
363 379 297 218 180 154 147 55 34 6 7 4 2 1 0 0 0 0 0 1 0 0 0 0 0 0 0 0 0 0 0 0 0 0 0 0 0 0 0 18 36 56 70
277 251 209 167 161 128 69 46 15 4 3 9 1 0 0 0 0 0 0 0 0 0 3 0 0 0 0 0 0 0 0 0 0 0 0 0 0 0 0 0 6 52 91
141 135 108 106 140 86 66 61 49 26 5 2 1 0 2 0 0 0 0 0 0 0 1 1 0 0 0 0 0 0 0 0 0 0 0 0 0 0 0 0 0 0 0
70 40 14 37 128 124 97 51 26 20 8 20 14 0 1 1 1 1 0 0 0 0 0 8 2 0 0 0 0 0 0 0 0 0 0 0 0 0 0 0 0 0 0
7 52 60 71 68 56 15 8 4 7 7 15 12 10 1 1 1 1 0 0 0 0 0 6 1 0 8 8 2 0 0 0 0 0 0 0 0 0 0 0 0 0 0
28 35 38 39 1 0 1 1 1 0 2 1 1 29 1 1 1 1 0 0 0 0 10 24 2 0 6 1 0 0 0 0 0 0 0 0 0 0 0 0 0 0 0
7 6 0 1 1 2 0 2 6 2 1 1 28 1 1 1 1 1 0 0 0 0 0 0 0 0 0 0 0 0 0 0 3 3 5 6 4 3 5 5 5 5 1
1 0 0 0 0 0 0 1 6 0 0 0 1 1 1 1 1 1 0 0 0 0 0 0 0 1 0 0 0 0 0 2 4 3 4 5 6 6 5 4 3 4 4
0 0 0 0 0 0 0 0 0 0 0 0 0 0 0 0 0 1 0 0 0 0 0 0 0 0 0 0 0 0 0 1 4 5 7 6 3 4 4 2 2 2 1
3 3 3 3 2 5 5 1 0 0 0 0 0 1 3 1 0 0 0 0 0 0 0 0 0 0 0 0 0 0 0 2 1 0 3 3 2 3 2 2 1 0 0
7 7 8 8 8 11 6 3 1 2 3 5 5 4 2 6 10 6 9 7 6 4 2 0 0 0 0 2 1 1 0 0 2 2 2 4 2 3 1 1 1 1 0
13 13 12 12 12 10 5 5 5 6 5 5 7 8 7 7 7 5 4 8 12 8 5 8 10 11 7 3 1 1 1 5 2 1 0 2 2 2 1 0 0 0 0
7 8 6 7 9 8 4 4 3 3 8 8 4 3 4 5 4 4 3 9 14 13 2 1 3 2 1 1 0 0 1 1 1 0 0 2 1 0 0 0 0 0 0
3 3 4 4 4 6 6 3 2 5 5 5 4 4 4 4 4 3 5 5 4 5 0 0 0 0 0 0 0 0 0 0 0 0 0 0 0 0 1 0 0 0 0

GFSMA_con_mlcape_099.txt.gz
CAPE
1607 1368 1368 1207 1324 1094 918 835 744 633 541 510 632 402 130 76 8 12 92 114 113 420 653 675 480 399 324 150 80 44 17 5 0 0 0 0 0 0 2 2 2 1 4
1548 1269 1044 1093 980 834 599 490 303 408 377 362 249 151 149 64 4 3 54 89 94 235 464 656 582 527 309 114 49 22 21 12 5 1 1 2 3 4 2 1 2 1 1
1353 1159 915 903 743 595 300 92 48 35 101 239 241 52 89 24 2 4 37 57 99 126 176 243 310 305 173 53 28 16 26 22 12 8 2 3 4 2 2 1 3 2 1
1128 941 824 683 510 361 116 46 23 2 8 14 12 36 122 8 0 24 18 3 236 190 83 51 107 192 87 9 24 18 15 11 8 7 5 2 5 2 5 4 2 1 3
985 813 682 462 405 278 128 29 2 1 2 27 34 90 19 1 0 29 13 35 204 193 189 60 72 119 39 15 13 22 15 11 8 17 9 6 6 5 4 4 2 3 3
804 671 481 345 290 211 105 24 0 3 7 45 42 38 26 5 7 42 21 0 35 180 140 141 129 94 33 6 10 10 20 18 19 21 13 10 6 6 6 3 3 0 0
684 541 374 257 236 190 128 50 2 4 16 20 28 11 7 7 3 0 22 45 15 6 60 115 110 85 52 9 7 5 19 21 29 19 18 13 8 2 3 3 7 2 2
630 488 434 304 261 198 131 83 32 3 15 20 17 7 5 0 1 11 35 25 9 0 2 5 12 11 21 16 12 5 11 37 24 21 26 11 8 3 4 3 6 1 1
677 577 528 370 293 246 148 101 61 12 4 20 7 8 2 3 1 1 6 15 3 0 0 0 0 0 0 5 12 15 6 20 21 17 18 8 5 4 4 5 5 5 3
605 439 436 412 304 224 156 124 80 32 38 22 27 14 1 0 0 0 1 1 1 4 0 0 0 0 0 1 5 11 4 10 16 17 16 5 5 7 4 3 1 4 3
687 134 0 154 314 280 181 130 70 66 64 46 13 4 1 0 0 0 0 0 1 1 1 0 0 0 0 0 0 5 0 0 1 16 22 7 6 4 3 0 1 0 0
126 1 2 223 257 227 226 176 109 73 73 35 10 2 1 0 0 0 0 2 1 1 1 0 0 0 2 0 0 0 0 0 0 0 5 11 6 8 5 4 5 4 0
30 2 73 393 330 278 194 199 115 113 68 36 5 5 0 0 1 0 3 0 0 1 0 0 0 0 0 0 0 0 0 0 0 0 0 0 0 2 6 8 7 3 4
164 170 305 432 414 277 184 99 91 85 103 24 7 2 1 0 0 0 1 1 1 0 0 0 0 0 15 6 2 0 0 0 0 0 0 0 0 0 0 0 0 1 27
322 262 323 283 265 211 138 96 50 117 76 44 24 8 5 2 0 0 0 0 0 1 1 0 0 0 29 7 0 0 0 0 0 0 0 0 0 0 0 0 0 0 0
96 50 152 195 155 131 223 147 49 36 55 46 25 5 3 1 1 0 0 0 0 0 1 0 0 3 34 19 17 1 0 0 0 0 0 0 0 0 0 0 0 0 0
0 60 50 71 108 162 145 139 121 82 50 29 15 4 0 0 1 1 1 1 0 0 0 0 0 21 59 48 20 11 15 2 0 0 0 0 0 0 0 0 0 0 0
2 24 9 25 43 143 140 96 49 12 12 4 2 7 5 7 1 2 2 1 0 0 0 0 0 23 31 13 23 21 13 0 0 1 0 0 0 0 0 0 1 1 3
0 2 3 17 31 44 23 0 1 2 4 4 3 7 9 1 2 2 2 1 0 0 0 0 0 14 17 33 21 4 1 6 6 3 6 4 4 4 5 5 2 2 5
0 3 6 1 0 0 1 1 1 1 12 9 1 2 4 10 0 1 1 1 1 0 0 2 11 5 21 1 1 0 1 3 7 4 4 5 5 5 5 5 5 6 4
0 0 0 0 0 0 0 0 0 0 2 0 0 0 0 0 0 0 1 1 1 2 2 2 0 1 0 0 0 1 1 4 6 6 7 6 4 4 3 2 3 1 1
3 2 1 1 1 0 3 0 0 0 0 0 0 2 2 1 0 0 0 0 0 1 0 0 0 0 1 0 0 0 0 2 1 1 4 4 2 4 3 2 1 0 0
8 8 9 8 6 10 8 3 0 1 3 5 6 4 4 8 9 5 8 4 2 1 0 0 0 0 0 0 0 0 0 3 2 2 0 4 2 2 1 1 0 0 0
6 13 12 11 12 9 4 4 5 7 6 6 6 7 7 5 4 7 0 2 11 11 7 5 2 8 9 5 1 1 0 6 4 0 0 5 2 2 0 0 1 1 0
4 7 7 7 8 7 4 5 5 5 9 10 5 4 4 5 6 4 11 12 18 17 7 7 4 2 1 1 2 0 1 0 2 1 0 2 1 0 0 0 0 0 0
3 3 5 4 4 6 4 4 3 4 7 7 6 5 5 5 5 5 5 4 6 10 3 0 0 2 0 0 0 0 1 0 0 0 0 0 2 1 5 3 4 1 0

GFSMA_con_mlcape_102.txt.gz
CAPE
2181 1964 1786 2001 1962 1848 1865 1685 1621 1507 1414 1193 1053 992 792 759 499 291 122 57 67 185 228 526 705 591 411 313 287 199 102 32 0 0 0 0 0 0 0 0 3 2 2
2070 1964 1888 1841 1716 1768 1780 1764 1631 1481 1367 1046 849 799 804 567 504 258 83 52 17 105 144 572 685 617 487 335 180 96 24 10 6 0 0 0 0 0 0 1 3 1 3
2077 1749 1702 1660 1823 1744 1803 1651 1517 1363 1142 929 891 744 655 526 341 293 56 11 44 40 122 307 440 477 444 328 115 40 17 19 5 0 0 0 1 2 4 1 3 3 3
1946 1763 1634 1566 1370 1426 1136 947 826 711 661 824 728 755 518 375 251 209 2 0 4 86 39 39 162 223 293 247 95 49 9 9 13 13 2 0 1 3 1 2 2 3 2
1804 1686 1440 1461 1278 1209 995 744 663 559 513 700 650 431 302 155 132 33 0 1 0 15 65 93 66 69 90 97 71 22 19 13 10 11 10 2 6 3 2 2 3 2 3
1773 1590 1429 1160 1094 982 1063 797 554 356 277 302 110 63 93 249 98 10 5 12 20 15 99 51 3 2 60 35 9 3 22 11 13 11 8 5 8 3 1 2 3 3 4
1690 1512 1298 1021 915 822 817 620 373 186 143 184 120 62 45 66 13 4 1 1 9 11 43 188 121 99 86 50 7 0 31 16 19 14 12 9 4 4 5 2 3 5 1
1713 1489 1224 995 875 816 705 611 422 130 139 133 80 43 26 1 21 10 11 10 34 4 18 112 129 82 95 72 25 4 16 18 21 26 19 9 3 3 2 2 3 6 4
1651 1329 1086 895 797 708 725 782 403 215 179 157 97 88 7 12 1 4 6 16 6 13 8 19 24 73 54 58 25 13 3 10 16 22 28 16 7 5 1 4 4 7 4
1422 1183 930 795 720 659 689 665 466 346 241 168 146 158 160 19 30 0 0 20 38 13 27 16 5 10 22 30 27 13 4 2 6 13 13 14 7 6 3 3 5 5 9
1362 1162 810 680 128 611 674 660 577 581 332 202 153 121 122 58 134 32 0 1 8 4 10 5 3 0 0 0 9 12 2 4 6 10 8 11 7 6 4 5 4 4 4
1286 1156 983 931 640 499 466 457 526 530 390 238 166 124 144 85 88 33 28 4 2 2 8 3 2 0 0 0 4 5 0 0 0 10 14 15 8 5 4 3 2 2 3
1279 1185 959 510 379 148 235 411 459 492 368 233 171 105 51 29 26 11 41 7 1 2 1 2 2 1 1 0 9 4 0 0 0 0 1 13 12 5 3 3 9 6 4
1268 1416 667 223 31 9 143 420 464 620 442 259 154 122 63 33 131 13 21 6 3 3 2 0 2 1 4 8 18 0 0 0 0 0 0 0 1 7 9 6 9 9 8
1572 875 397 240 110 175 307 398 533 484 251 203 161 175 73 45 10 3 3 4 9 1 1 1 1 1 1 1 4 0 16 0 0 0 0 0 0 0 0 0 0 0 3
949 711 416 335 288 346 349 378 474 259 137 152 162 139 109 114 33 2 3 3 4 0 1 0 0 0 0 24 19 42 36 10 0 0 0 0 0 0 0 0 0 0 0
720 430 265 252 204 182 188 202 222 232 203 119 150 160 105 51 8 6 17 50 53 43 1 1 0 0 1 27 56 68 91 53 0 0 0 0 0 0 0 0 0 0 0
457 419 303 91 62 176 171 174 258 200 202 169 139 54 28 18 14 11 13 6 3 0 1 1 1 2 0 5 29 61 112 2 0 0 0 0 0 0 0 0 0 0 0
222 112 107 36 22 104 192 115 163 190 190 117 78 48 32 10 7 12 2 2 1 1 0 1 0 1 0 29 18 11 0 3 6 6 6 5 4 4 3 4 5 6 4
91 136 138 68 44 21 36 24 30 21 19 55 87 41 39 21 10 3 5 1 2 2 2 0 0 1 5 36 0 0 3 5 7 4 5 6 5 5 5 6 6 7 7
18 7 0 0 0 0 0 0 0 3 2 2 0 0 0 0 0 2 1 1 1 2 1 2 2 4 14 42 2 4 6 8 7 6 8 6 5 4 4 4 4 4 3
8 2 2 1 1 3 4 0 0 1 0 0 0 2 4 1 0 0 0 0 1 1 2 2 3 2 2 7 2 2 5 4 2 2 4 3 2 3 2 2 1 1 1
2 6 11 6 6 8 7 2 1 1 2 4 6 3 3 7 7 3 0 0 1 0 0 0 1 1 0 0 0 0 5 1 1 6 1 5 2 2 1 1 1 1 0
0 0 4 9 12 13 10 8 6 9 11 10 9 9 10 8 5 3 2 3 8 7 3 0 0 1 0 0 0 0 0 6 8 0 0 5 2 2 0 1 1 1 1
0 2 2 2 9 7 4 5 4 5 10 11 6 5 5 5 4 3 4 4 7 15 9 14 19 12 7 7 5 1 2 1 6 2 0 4 2 2 2 0 1 1 0
6 3 1 2 4 5 5 5 3 7 6 7 6 6 6 6 5 4 5 11 11 16 6 1 1 0 1 1 0 1 4 2 2 1 0 0 2 0 2 0 0 0 0

GFSMA_con_mlcape_105.txt.gz
CAPE
1975 1767 1642 1708 2042 1753 2020 1853 1783 1676 1448 1347 1244 1278 1289 1023 1120 579 516 93 66 93 212 274 276 294 291 485 427 283 178 132 84 21 0 0 0 0 0 0 0 0 1
2339 1932 1796 1715 1504 1837 2164 1856 1887 1692 1680 1480 1292 1203 1227 1102 1015 779 554 190 17 21 198 211 357 408 484 488 363 240 159 103 10 0 0 0 0 0 0 0 0 2 1
2334 2137 2017 2027 1658 1709 1959 1960 2043 1798 1763 1520 1323 1213 1218 1182 900 721 504 348 51 23 107 148 108 50 587 530 325 171 80 26 2 7 1 0 0 0 0 0 2 3 1
2214 2305 1987 1923 1934 1620 2054 1948 1933 1814 1681 1467 1228 1133 1053 1005 810 694 500 375 113 107 64 117 85 36 501 541 321 139 67 5 4 10 0 0 0 0 0 2 1 3 1
1931 2241 2045 1847 1870 1666 1936 1746 1806 1747 1678 1415 1238 1053 922 786 699 644 373 237 63 53 129 84 28 36 7 339 236 132 91 5 4 8 2 1 0 0 3 2 2 3 2
2065 2288 2083 1847 1776 1481 1693 1412 1206 1275 1168 1247 1028 713 741 650 636 331 205 81 14 40 28 73 16 55 49 104 79 130 82 15 6 9 3 2 3 1 1 3 1 3 1
2255 2236 2066 1902 1724 1352 1689 1366 1100 1033 971 925 767 379 340 380 404 271 103 57 5 0 52 76 4 32 77 83 71 63 47 44 12 14 8 0 6 4 2 2 2 1 1
2279 1984 1969 1911 1704 1505 1627 1377 1039 856 806 696 483 66 18 0 44 192 81 6 4 0 10 22 31 67 61 107 53 12 7 32 17 5 3 3 5 5 5 4 5 2 7
2163 1908 1883 1995 1670 1484 1370 1251 1069 765 635 558 320 198 19 2 1 10 90 4 2 0 0 18 26 105 132 152 79 11 0 16 18 11 0 9 6 4 4 5 4 3 10
1890 2056 2003 1732 1537 1425 1280 1201 1099 865 783 472 416 372 369 225 70 0 4 18 11 4 4 8 31 20 30 131 87 36 0 1 9 14 0 4 3 5 4 4 4 4 6
1989 2023 2017 1727 1453 1203 1191 1207 1006 862 854 601 413 268 533 326 137 130 1 1 3 2 9 4 7 14 23 0 66 53 0 1 9 17 20 8 7 9 6 3 3 4 8
1749 1932 1753 1581 1351 1272 1124 1146 533 1053 942 729 555 435 373 224 123 181 125 48 8 2 18 15 14 3 13 14 3 2 0 0 1 6 11 11 6 8 8 5 7 5 4
1675 1505 1594 1310 1339 1287 437 64 1 648 978 859 597 487 260 338 162 147 122 112 1 3 2 7 18 19 12 1 0 0 0 0 0 3 9 7 10 10 9 5 4 2 0
1662 1406 1421 1254 1256 1121 558 577 946 1127 1074 792 624 531 307 234 169 160 123 123 3 0 1 0 2 4 1 0 0 0 0 0 0 0 2 10 13 10 8 4 0 0 1
1684 1334 1400 1218 1235 1093 944 840 628 589 765 835 814 477 245 119 113 109 92 24 14 5 1 1 1 1 2 0 0 0 2 0 0 0 0 0 5 6 7 2 1 1 4
1715 1487 1373 1036 662 408 540 412 295 408 659 847 821 555 339 134 99 74 47 27 15 7 3 0 2 1 2 1 0 2 5 0 0 0 0 0 0 0 0 0 0 1 0
1339 1146 1185 782 652 417 98 85 100 124 459 556 347 281 211 133 105 92 52 36 9 3 2 1 0 0 3 2 1 0 4 4 0 0 0 0 0 0 0 0 0 0 0
1091 912 799 692 600 388 345 79 35 77 235 383 293 175 157 79 107 102 51 11 4 6 7 7 0 0 1 2 3 0 21 86 0 0 0 0 0 0 0 0 0 0 0
818 725 713 585 570 417 365 237 5 1 183 330 295 190 76 129 88 90 60 34 39 62 54 0 0 1 1 3 3 3 0 1 3 2 1 0 0 0 0 0 0 0 0
385 511 479 434 290 287 335 334 250 219 177 184 154 161 157 80 45 32 16 17 19 16 1 1 1 2 1 2 1 0 3 5 7 6 6 7 7 6 5 4 4 4 3
3 1 51 28 72 51 71 139 59 38 57 65 7 0 0 0 0 0 5 17 14 6 1 1 1 2 3 0 0 4 5 5 6 7 8 6 5 6 5 5 6 5 6
6 12 6 7 0 3 1 0 0 0 0 0 0 0 0 1 1 0 0 0 0 1 1 1 1 1 2 0 2 2 4 3 1 1 5 6 3 5 3 3 3 2 2
0 3 5 7 13 9 2 1 0 0 0 2 3 2 1 3 6 3 4 2 1 0 0 0 1 1 1 1 2 3 5 2 1 5 2 6 3 3 2 3 2 2 1
3 1 0 2 4 7 6 5 2 6 8 10 9 9 5 6 7 4 3 1 7 6 3 0 0 0 0 0 0 0 2 4 5 1 0 6 2 4 1 1 2 2 2
5 6 2 0 2 2 1 4 6 10 11 13 6 6 6 6 4 4 2 3 8 18 9 17 21 19 10 4 1 0 3 1 5 2 1 3 2 3 1 1 2 2 1
1 2 4 3 2 4 2 2 4 7 6 7 7 6 7 5 4 1 2 2 2 11 2 0 1 3 7 6 1 1 5 2 1 3 1 0 2 0 0 1 0 1 1

GFSMA_con_mlcape_108.txt.gz
CAPE
2245 2210 2192 2031 2190 2107 2070 1804 1864 1849 1728 1469 1464 1321 1309 1165 1176 911 550 352 232 125 238 298 548 325 312 226 445 501 348 287 234 162 65 17 0 0 0 0 0 0 0
2161 2080 2117 1668 2166 1757 1834 1809 1738 1803 1710 1535 1314 1289 1211 1190 1178 769 416 219 80 25 52 302 341 317 339 210 320 406 294 237 190 121 31 0 0 0 0 0 0 0 1
2492 2337 2169 1999 1546 1989 1415 1708 1768 1809 1661 1612 1470 1405 1229 1174 1135 932 711 196 44 0 0 189 162 139 76 304 280 289 250 177 118 62 0 0 0 0 0 0 0 0 1
1904 2223 2153 1863 1998 1648 1849 1966 1703 1859 1619 1593 1419 1495 1317 1211 1169 817 729 469 289 153 49 0 53 111 171 197 180 402 260 125 62 5 0 0 0 0 0 0 0 0 1
1810 2052 2175 2103 1777 1730 1663 2010 1776 1759 1665 1509 1364 1167 1117 1148 970 823 605 430 247 96 64 38 14 74 59 67 96 420 299 118 21 0 0 8 0 0 0 0 2 3 2
1967 1880 2184 2126 2010 1750 1620 2068 1771 1778 1631 1422 1336 1090 1058 987 802 605 559 384 186 52 28 83 2 1 0 0 0 295 311 142 34 0 0 6 0 0 0 2 1 2 3
1972 1920 2049 2010 1866 1806 1719 1937 1621 1449 1319 1267 1010 1050 781 668 681 571 329 181 58 6 6 0 0 10 0 0 0 5 290 225 56 5 0 1 0 3 1 1 2 3 5
1662 1907 2044 1980 1774 1518 1452 1705 1320 1208 1094 943 823 588 339 194 129 415 377 72 8 1 0 0 0 32 29 3 7 14 181 189 99 9 10 2 0 5 3 3 3 2 3
1426 1627 2012 1986 1531 878 160 1400 1255 1092 921 951 614 425 111 59 48 82 225 113 0 1 3 0 0 36 50 47 40 58 45 88 112 45 13 4 0 5 2 4 4 3 3
1293 1685 1705 1784 1461 1010 1030 635 1130 1097 786 769 799 623 435 288 84 21 80 125 2 2 1 0 2 3 32 109 65 40 42 32 57 44 19 0 2 0 3 5 4 4 2
1274 1425 1649 1640 1594 1209 620 1097 1079 974 709 600 711 721 573 558 547 227 15 12 10 1 0 0 0 0 19 37 76 39 34 40 24 9 13 2 0 0 5 7 10 5 4
192 1158 1331 1794 1722 1413 1273 1078 227 787 800 781 813 768 539 497 642 318 158 27 0 2 0 0 0 0 14 19 34 48 16 1 0 0 14 11 0 2 6 5 4 6 7
126 412 908 1687 1731 1391 1196 1042 670 326 731 851 565 471 637 470 505 357 222 106 4 3 8 8 0 0 5 17 34 8 7 1 0 0 16 20 2 6 9 8 7 8 6
27 470 524 1290 1359 1395 1317 1178 963 728 583 530 169 558 699 531 519 356 273 157 24 0 0 0 7 6 1 3 2 6 0 0 0 1 5 11 7 8 9 8 8 5 3
0 849 1320 1242 1258 1305 1290 848 481 404 35 62 12 0 509 492 411 459 245 166 41 0 0 1 0 6 11 4 0 0 0 0 0 0 0 0 6 8 10 16 5 2 0
547 1006 1227 1226 1195 1231 1148 802 649 517 754 910 768 628 461 477 329 325 229 144 51 9 0 0 0 0 14 5 0 0 0 0 0 0 0 2 3 13 14 10 6 0 0
650 1046 1212 1226 1097 1092 1063 1026 880 784 491 611 587 386 388 378 242 195 186 154 53 30 23 1 0 0 0 3 2 0 0 0 0 0 0 0 0 8 16 6 1 0 3
10 749 992 962 1028 821 712 718 690 577 445 268 192 335 156 342 197 161 135 66 23 7 6 9 4 0 0 0 1 0 1 0 0 0 0 0 0 0 0 0 0 0 0
1 6 355 553 564 409 359 367 305 257 93 24 24 41 201 182 115 134 60 49 35 25 5 5 4 0 2 2 1 1 0 0 0 0 0 0 0 0 0 0 0 0 0
3 7 8 192 311 315 348 183 34 13 11 8 66 110 167 116 43 34 55 25 25 40 33 44 4 5 1 1 1 0 0 4 1 6 5 3 1 0 0 0 0 0 0
6 4 9 6 5 1 24 109 187 26 11 0 22 18 0 0 0 0 10 28 18 18 45 46 15 6 1 2 0 2 3 7 9 6 9 9 6 6 8 6 6 4 4
4 5 5 13 11 14 13 0 144 156 33 0 0 0 2 2 1 1 0 0 0 0 9 25 14 6 0 0 3 1 3 3 1 3 7 8 3 7 3 3 4 5 6
6 5 4 3 5 6 10 7 0 0 0 1 3 2 2 5 4 3 4 4 3 6 1 0 2 0 1 0 1 3 5 1 0 4 1 9 2 4 2 3 4 6 7
4 6 4 5 2 3 1 3 8 12 13 14 9 9 7 7 6 3 3 2 5 4 4 1 0 0 0 0 0 0 1 4 7 2 0 7 2 4 1 2 3 4 3
2 3 3 4 5 4 3 1 2 8 13 13 7 6 6 9 6 6 4 2 5 9 7 13 17 15 5 0 0 0 2 1 5 4 2 9 3 5 2 1 2 2 2
0 0 1 0 2 4 5 4 1 2 7 7 6 6 6 7 3 2 2 1 2 7 4 0 0 1 7 5 1 0 1 2 1 4 1 1 5 0 1 0 1 1 1

GFSMA_con_mlcape_111.txt.gz
CAPE
1400 1763 2078 2065 1939 1820 1662 1569 1453 1353 1176 1177 1213 1080 1183 1029 1087 933 798 639 516 578 526 453 401 406 301 204 87 231 472 293 269 213 151 70 14 0 0 0 0 0 0
1676 1672 1907 1902 2029 1983 1789 1617 1514 1466 1438 1341 1225 1211 1163 1037 1022 884 572 378 307 254 185 230 611 622 583 218 110 145 450 230 249 176 81 19 1 0 0 0 0 0 0
2079 1883 1792 1797 1878 1922 1831 1595 1388 1403 1573 1487 1378 1204 1092 1026 945 869 491 223 97 30 1 30 433 503 428 442 170 84 390 280 240 157 67 7 0 0 0 0 0 0 0
1941 2231 1865 1776 1488 1724 1644 1633 1432 1366 1394 1415 1348 1236 1143 1038 991 883 652 342 82 12 0 0 296 341 156 236 243 193 54 206 206 142 63 0 0 0 0 0 0 0 0
1658 1698 1897 2036 1738 1510 1525 1502 1343 1275 1373 1341 1220 1176 1135 1085 995 899 686 413 247 146 35 25 0 113 53 46 112 206 26 198 189 125 36 7 0 0 0 0 0 0 0
1645 1492 1424 1671 1812 1693 1485 1534 1451 1322 1291 1354 1257 1130 897 923 964 854 669 512 341 151 36 0 0 0 40 46 53 33 11 270 194 113 31 8 3 1 5 0 0 1 2
1206 1612 1645 1493 1409 1501 1523 1347 1450 1518 1321 1304 1155 962 708 764 778 723 644 545 380 127 6 0 0 0 0 42 6 16 0 270 219 128 35 2 0 4 0 0 1 1 3
0 742 1556 1615 1682 1393 1352 1218 1090 1158 1206 1274 1100 784 681 540 546 691 539 459 298 69 3 0 0 0 0 0 0 5 8 0 242 185 62 0 0 0 0 1 0 2 6
0 0 555 1424 1709 1527 1250 1058 999 695 593 929 693 545 404 296 177 154 398 296 206 35 0 0 0 0 1 0 7 0 0 0 45 175 80 2 0 0 0 3 2 4 5
0 0 4 786 1149 1448 1118 823 437 17 0 9 437 509 155 49 58 25 94 294 199 27 9 0 0 0 1 17 2 1 0 0 38 117 70 1 0 0 0 0 3 3 7
0 0 0 31 708 957 902 627 162 0 25 273 0 167 456 218 114 41 7 123 170 50 4 0 0 0 0 4 43 37 30 50 48 64 61 19 0 1 0 1 6 4 12
0 0 0 0 521 596 674 646 449 210 326 293 257 537 481 431 476 279 90 81 86 41 2 1 1 0 0 0 32 53 0 16 7 34 62 47 2 1 0 0 7 9 10
4 2 0 0 56 646 488 500 641 624 546 549 631 487 431 402 329 286 357 170 69 3 3 1 0 0 0 1 32 32 40 23 16 23 47 31 5 0 0 0 5 14 10
3 1 2 0 4 103 324 494 601 435 433 590 598 543 516 399 320 331 389 249 100 24 4 2 2 0 0 0 0 9 23 2 2 7 10 14 9 2 0 1 2 10 14
3 3 2 1 0 0 5 330 380 354 352 260 212 476 415 412 410 439 363 245 129 11 0 0 1 3 1 0 0 0 1 3 0 0 0 1 4 1 6 1 0 1 9
3 5 2 0 19 2 0 331 508 574 552 223 6 7 202 367 399 441 275 193 150 64 9 0 0 0 17 2 0 0 0 0 0 0 0 0 0 0 0 2 1 1 4
4 10 1 162 370 457 319 368 582 604 589 357 235 30 31 90 200 280 215 174 109 71 59 0 0 0 4 3 1 0 0 0 0 0 0 0 0 5 7 5 6 4 5
5 6 7 4 450 353 196 374 482 553 487 445 346 153 76 154 47 186 182 165 82 61 56 8 0 0 0 2 4 0 1 0 0 0 0 0 0 0 1 5 2 7 2
6 6 9 3 0 217 262 590 605 686 642 588 362 209 152 115 137 132 116 77 60 66 36 6 4 9 2 0 1 1 0 0 0 0 0 0 0 0 0 0 2 7 4
6 7 8 9 9 3 0 1 357 409 261 216 96 72 14 3 8 106 76 68 64 64 6 7 11 21 24 2 1 0 0 2 1 1 0 0 0 0 0 0 0 2 0
4 4 5 4 7 4 13 11 0 78 80 63 11 0 0 1 42 24 47 51 34 23 10 16 7 14 15 8 0 1 1 1 6 7 4 4 2 0 0 0 0 0 0
3 2 5 6 8 8 3 7 0 4 1 0 0 0 3 0 0 0 0 0 0 16 50 33 26 2 1 1 0 1 0 2 2 3 5 3 5 3 6 3 3 2 1
1 4 3 4 7 6 4 0 9 12 5 2 1 3 3 7 4 2 4 5 5 4 2 0 2 2 1 0 0 0 0 0 0 5 2 8 2 9 4 3 7 6 6
0 0 1 2 4 5 3 0 0 3 7 8 8 7 6 7 7 3 2 1 6 8 8 3 2 1 0 0 0 0 1 3 4 3 0 4 2 5 1 2 4 5 3
0 0 0 0 1 3 5 5 0 0 2 5 3 4 4 8 7 6 3 1 9 14 6 8 13 10 11 0 0 0 0 2 4 4 2 3 2 4 2 1 2 4 3
0 0 0 0 1 0 2 4 2 2 1 1 1 1 2 5 2 2 4 5 2 11 4 0 0 0 4 12 2 0 3 2 0 3 0 1 4 1 1 0 1 1 2

GFSMA_con_mlcape_114.txt.gz
CAPE
1211 1538 1633 1521 1429 1358 1311 1189 1236 1295 1283 1206 1118 1069 973 925 952 820 683 666 666 803 660 649 517 471 506 493 280 196 162 201 192 431 380 250 172 75 4 0 0 0 0
1094 1185 1553 1753 1730 1556 1382 1326 1249 1250 1248 1238 1081 1027 1089 1010 1053 921 781 631 539 520 753 582 559 404 497 442 119 172 135 154 164 427 329 210 113 26 0 0 0 0 0
1320 1266 1188 1497 1877 1811 1689 1537 1392 1273 1264 1216 1131 994 1075 1030 1003 875 769 619 485 393 461 464 494 640 647 642 204 130 17 197 323 381 291 177 70 0 0 0 0 0 0
1574 1379 1443 1280 1315 1870 1783 1711 1584 1390 1291 1247 1142 1122 1021 1045 1003 832 653 506 329 242 141 55 104 404 574 554 507 128 78 137 145 372 284 150 56 4 0 0 0 0 0
651 1265 1216 1046 1120 1247 1605 1693 1586 1440 1175 1101 1104 1115 1148 1037 905 794 667 514 344 126 19 0 1 162 405 472 263 338 108 1 119 285 254 140 53 16 0 0 0 0 0
0 310 1090 1097 924 817 961 1199 1489 1397 1258 1057 991 1024 1140 945 843 819 720 586 375 189 127 75 3 15 114 313 108 145 349 109 19 186 158 112 53 14 0 0 0 0 0
0 0 0 912 1084 984 968 902 880 1002 1058 1073 932 852 724 763 785 689 698 635 450 302 287 148 33 0 0 63 98 68 286 317 256 226 116 90 35 16 3 1 2 0 0
0 0 0 0 398 1075 1072 808 798 714 738 671 827 834 668 603 544 620 609 615 503 342 194 77 27 0 0 0 26 86 81 251 213 267 157 77 27 20 3 2 11 2 0
0 0 0 0 0 223 1016 1154 710 659 544 416 349 190 127 312 390 317 501 440 354 247 129 49 15 0 0 0 0 11 33 9 14 116 215 77 25 4 0 0 4 2 3
0 0 0 0 0 0 71 832 818 648 484 146 0 0 0 35 94 75 128 412 307 242 109 40 4 0 0 0 0 0 1 13 33 57 162 84 25 0 0 0 0 0 3
0 0 0 0 0 0 0 520 745 372 196 11 0 0 0 0 23 13 21 80 203 143 70 41 7 0 0 0 1 2 0 0 0 0 0 80 27 0 0 0 0 1 5
0 0 1 2 2 0 0 86 587 351 35 6 0 1 39 78 25 0 11 18 35 63 61 25 22 0 0 1 2 1 0 0 0 0 0 62 30 2 0 0 0 4 5
4 3 2 3 2 3 1 0 240 123 85 24 4 6 36 66 65 106 67 17 1 20 49 36 26 0 0 0 0 0 0 2 0 1 0 31 5 5 0 0 0 5 12
3 3 3 4 5 3 3 1 120 232 146 150 173 84 17 122 213 206 187 94 4 24 29 1 12 1 0 0 0 0 0 0 0 0 0 1 25 15 0 0 0 0 4
2 3 5 4 5 3 2 1 15 190 337 256 52 158 272 272 183 166 218 112 91 8 13 20 13 0 1 0 0 0 0 0 6 1 0 13 28 36 4 0 0 0 0
4 5 5 4 5 4 1 1 0 95 218 39 66 230 283 228 217 198 196 96 74 36 11 3 0 4 0 1 1 0 0 0 0 3 0 9 20 15 0 0 0 0 2
4 4 5 5 6 6 2 0 0 35 201 101 51 98 251 250 284 254 245 180 133 95 102 1 0 0 0 4 3 1 0 0 0 0 2 0 0 1 0 0 0 0 0
3 4 4 5 8 4 1 70 23 21 72 99 144 45 41 156 231 212 210 224 124 66 62 26 0 1 1 1 3 2 2 1 0 0 0 0 0 0 0 0 0 0 0
3 3 4 6 7 9 7 3 53 123 49 106 150 95 27 4 19 58 139 126 121 48 69 20 19 1 1 1 5 0 6 0 0 0 0 0 0 0 0 0 0 0 0
2 2 3 4 5 5 7 9 1 0 65 151 120 110 88 5 0 31 44 3 0 12 59 41 25 11 0 1 4 0 0 0 0 0 0 0 1 0 0 0 0 0 0
1 1 2 2 3 3 5 6 1 0 0 0 83 52 46 83 18 47 17 3 38 61 28 39 28 14 4 3 0 0 0 0 1 2 1 1 1 1 2 0 0 0 0
0 0 1 1 3 4 3 6 8 2 1 2 0 0 1 0 0 0 0 6 24 20 39 25 13 3 11 6 2 0 0 0 0 6 1 1 4 1 1 1 0 0 0
0 1 1 0 1 2 5 4 4 7 13 5 10 10 6 8 5 0 0 0 0 0 0 8 3 4 0 2 0 0 0 0 0 2 0 2 5 3 6 4 1 0 0
0 0 0 0 0 1 3 4 4 3 0 0 1 5 6 8 7 4 4 2 4 6 5 2 1 1 1 0 0 0 0 2 4 6 0 2 2 5 1 3 3 5 3
1 0 0 0 0 0 1 2 2 3 4 1 2 2 4 5 2 2 5 4 8 14 14 14 18 17 12 5 2 0 0 0 1 2 1 3 3 4 3 2 1 3 5
0 0 1 0 1 0 2 3 0 1 2 2 3 1 3 3 5 3 1 4 6 13 13 7 5 1 4 4 2 0 0 0 1 5 2 0 5 1 0 1 2 2 2

GFSMA_con_mlcape_117.txt.gz
CAPE
1577 1763 1659 1596 1452 1411 1353 1269 1221 1222 1404 1369 1139 945 770 661 600 542 541 570 522 684 855 922 761 560 567 736 597 465 357 196 185 198 177 238 279 264 216 101 40 0 0
1251 1252 1373 1454 1378 1321 1310 1296 1205 1146 1174 1287 1184 1018 860 753 660 636 612 564 533 549 687 777 863 728 627 576 519 450 329 179 163 177 188 263 305 212 130 59 4 0 0
1070 1107 1107 1270 1335 1267 1285 1308 1245 1197 1148 1135 1200 1043 923 798 777 734 701 544 482 427 505 652 703 681 477 493 321 338 239 157 126 173 279 356 202 136 67 19 0 0 0
0 834 1147 1155 1185 1167 994 1127 1204 1293 1242 1160 1104 991 944 815 752 729 725 567 449 445 378 345 587 551 519 553 484 342 143 103 80 137 267 325 205 98 45 6 0 0 0
0 0 10 968 1127 964 852 797 1017 1429 1168 1153 1172 964 864 792 781 769 728 609 429 355 250 226 215 142 241 350 529 466 286 79 0 7 181 250 213 87 34 0 0 0 0
0 0 0 0 169 618 607 286 617 695 211 699 904 993 803 747 852 825 751 602 412 320 186 94 41 10 12 184 497 449 299 197 8 66 108 143 262 96 30 0 0 0 0
0 0 0 0 0 7 518 557 524 225 87 439 601 454 351 394 485 597 615 524 430 341 261 132 35 0 17 56 195 438 135 369 285 86 26 66 229 127 40 0 0 0 0
0 0 0 0 0 0 0 424 660 724 522 523 474 390 332 151 186 361 340 349 413 408 395 235 125 55 22 12 29 193 292 72 362 26 49 126 213 107 45 8 2 0 0
0 0 0 0 0 0 0 0 205 541 735 479 580 427 98 172 67 0 228 108 342 306 383 283 232 64 12 23 6 0 136 101 67 278 153 162 140 71 48 17 3 0 1
0 0 1 2 2 0 0 0 0 88 574 391 50 142 2 0 0 0 0 91 181 254 334 265 182 96 32 20 5 0 0 6 6 66 200 144 134 88 50 26 3 0 0
0 0 0 1 1 1 0 1 0 0 213 460 118 0 1 0 0 0 0 0 1 199 244 260 110 30 8 14 9 0 0 0 0 0 1 78 124 104 68 30 3 0 0
2 2 2 2 2 3 2 1 2 4 4 136 111 81 2 0 0 0 0 0 0 14 225 168 130 41 0 5 3 1 0 0 0 0 0 9 24 84 86 37 3 0 0
3 2 2 3 4 4 3 4 3 2 11 36 38 35 15 0 0 0 0 0 0 4 45 100 74 20 1 0 0 0 0 0 0 0 0 0 5 41 65 22 0 0 0
3 2 3 3 3 4 5 4 4 2 2 13 2 0 0 2 10 33 3 1 2 17 16 1 5 8 1 0 0 0 1 0 0 0 0 0 0 0 10 3 0 0 0
2 2 3 4 3 4 4 3 4 2 1 10 4 1 1 2 21 47 92 31 53 36 24 2 3 3 2 1 0 0 1 0 0 0 0 0 0 0 0 1 1 0 0
3 3 3 3 4 4 5 5 6 3 2 17 4 10 30 25 20 24 83 148 108 73 8 39 15 14 11 1 0 0 0 0 0 0 0 0 0 0 0 0 2 1 0
2 3 3 4 3 5 6 6 6 4 1 1 8 20 40 37 28 84 119 123 110 96 30 3 0 0 0 0 0 0 0 0 0 0 0 0 0 0 0 0 3 8 0
2 2 3 3 5 5 5 7 8 3 3 1 2 19 46 41 14 31 96 79 91 84 31 10 0 0 0 0 0 0 3 1 0 0 0 0 0 0 4 7 7 0 0
1 1 2 2 5 4 6 7 11 6 2 2 2 71 44 44 71 146 169 131 85 53 32 4 0 1 1 3 3 0 1 2 1 0 0 0 0 0 0 0 0 0 0
1 1 1 1 2 2 3 4 10 8 7 4 8 58 62 55 15 20 127 139 97 76 52 71 24 8 1 0 3 1 0 0 0 0 0 0 0 0 0 0 0 0 0
1 1 0 0 1 1 2 4 6 9 11 5 0 1 1 14 3 0 10 59 48 28 12 44 34 10 5 4 4 0 0 0 0 1 0 0 1 1 1 2 2 0 0
0 0 1 0 0 1 2 3 3 6 5 8 6 3 5 5 1 0 0 0 6 3 0 0 0 3 12 4 6 0 0 0 0 3 1 0 6 1 1 2 2 0 0
1 1 1 1 0 1 3 3 2 1 4 5 5 3 0 3 5 5 0 0 0 0 0 6 6 0 8 7 3 0 0 0 0 0 2 0 8 2 7 4 3 1 0
1 1 1 1 1 0 2 3 1 0 0 0 2 5 4 1 1 3 5 3 9 13 9 1 3 0 0 0 0 0 0 1 3 5 1 0 16 7 5 4 5 2 2
0 0 0 1 2 1 3 2 0 1 1 0 0 0 2 4 3 0 2 7 5 8 3 9 15 16 11 5 2 0 0 0 0 1 2 0 9 7 5 5 2 3 3
0 0 0 0 0 1 3 3 1 1 1 1 0 0 0 2 3 4 0 0 1 3 1 0 2 5 10 11 2 1 0 0 0 1 4 0 9 2 2 2 1 1 1

GFSMA_con_mlcape_120.txt.gz
CAPE
1271 1148 1248 1247 1223 1223 1207 1116 1131 1192 1284 1279 1318 1016 772 644 557 513 490 590 617 535 688 1218 1486 690 932 958 834 698 547 413 270 152 131 104 131 144 266 106 54 24 0
777 809 1023 1179 1150 1140 1210 1227 1159 1143 1085 1164 1207 1116 923 715 597 535 473 460 530 526 541 957 1299 1271 1062 844 744 787 669 489 234 117 81 101 126 108 144 93 42 0 0
122 345 947 1024 1174 1103 950 1010 1078 1175 1110 1037 1084 1153 1005 827 653 541 533 445 469 454 426 599 789 931 922 784 727 562 617 430 271 136 61 110 102 99 118 92 44 0 0
0 0 0 75 854 1182 1097 935 923 944 987 906 930 1000 1009 919 803 675 626 568 534 500 449 386 523 645 794 718 688 422 443 419 304 187 92 92 132 111 85 88 47 3 0
0 0 0 0 0 91 899 887 816 807 863 779 870 866 704 754 709 664 730 555 568 518 428 384 377 444 599 744 660 624 451 283 289 147 111 112 146 125 79 55 37 0 0
0 0 0 0 0 0 74 388 518 599 394 417 503 121 429 590 512 404 491 415 433 502 452 391 384 317 342 518 491 571 685 462 414 163 128 126 297 161 78 51 23 0 0
0 0 0 0 0 0 0 0 357 182 16 85 123 51 148 133 114 301 299 283 283 229 222 200 203 188 210 122 108 283 527 745 609 374 157 23 17 125 106 52 16 0 0
0 0 0 0 0 0 0 0 0 369 282 133 23 34 0 0 0 160 148 81 233 180 220 214 200 207 151 81 56 137 315 472 439 416 167 29 26 144 89 69 15 0 0
0 0 0 1 1 1 0 0 0 0 273 295 326 267 105 43 28 13 0 10 208 128 94 214 154 236 156 104 47 51 93 284 378 348 248 147 55 26 101 22 0 0 0
0 0 1 0 1 1 1 1 1 0 0 64 196 290 154 27 81 8 0 76 69 41 120 21 5 103 120 133 65 33 13 15 172 280 175 207 47 32 90 38 2 0 0
1 0 1 2 2 2 2 1 1 2 1 0 11 4 1 10 0 0 2 1 10 27 20 0 0 76 73 101 70 62 4 0 10 78 162 116 110 137 203 79 33 3 0
1 1 1 2 2 3 3 2 3 2 2 1 5 15 3 4 0 0 0 0 0 0 0 0 0 16 49 79 50 38 9 0 0 0 11 69 142 129 181 115 66 29 1
3 2 1 2 3 2 3 3 4 4 3 2 1 5 19 2 1 0 0 0 0 0 0 0 9 3 1 3 10 2 0 0 0 0 0 0 2 57 95 112 79 57 17
2 1 1 2 2 2 3 3 4 3 3 2 2 0 24 17 1 0 0 0 0 0 0 0 22 43 31 2 2 0 13 0 0 0 0 0 0 0 3 62 72 37 13
1 1 1 2 2 2 2 2 3 5 3 3 2 2 15 23 9 2 0 0 23 16 0 0 0 43 106 42 1 1 14 2 0 0 0 0 0 0 0 4 29 21 1
1 2 2 2 2 2 2 3 5 5 8 6 3 2 7 15 4 1 1 14 20 38 17 0 0 3 56 35 18 1 7 1 0 0 0 0 0 0 0 0 0 0 0
1 1 2 2 1 2 3 3 5 6 7 2 3 3 15 20 13 4 8 35 37 38 31 28 0 0 3 18 1 3 1 0 0 0 0 0 0 0 0 0 0 0 0
1 1 1 1 1 2 2 4 8 8 7 6 3 2 4 21 10 2 4 23 54 80 90 52 6 11 19 3 15 10 1 1 0 0 0 0 0 0 0 0 0 0 0
1 1 1 1 2 2 2 3 3 6 6 6 7 4 6 7 5 2 26 58 50 32 35 32 24 2 2 10 7 0 1 1 1 0 0 0 0 0 0 0 0 0 0
1 1 1 2 3 3 1 2 3 6 6 6 6 7 9 6 4 4 42 53 68 58 56 44 43 9 0 0 1 1 1 1 0 0 0 0 0 0 0 0 0 2 0
1 1 1 1 2 1 3 2 2 3 5 7 5 5 4 5 2 4 3 43 73 127 118 90 55 2 0 0 5 0 1 0 0 0 0 0 0 0 1 0 0 0 0
1 1 0 0 1 1 4 3 1 2 3 4 6 4 3 3 4 1 4 2 0 52 60 42 58 6 3 1 2 2 0 0 0 2 0 0 2 0 1 2 1 1 1
0 1 0 0 0 1 3 1 2 1 2 2 2 2 3 2 4 4 2 3 8 8 7 0 8 17 16 6 0 10 0 0 0 0 0 0 3 0 8 6 3 1 3
0 0 0 0 0 0 2 1 1 1 1 1 1 0 0 1 2 4 2 2 6 9 10 11 10 4 0 5 16 2 0 0 0 2 3 0 12 2 9 6 6 4 2
0 0 0 0 0 0 1 2 1 1 1 1 1 1 1 1 2 2 4 4 1 0 1 1 1 2 10 10 5 0 0 0 0 1 5 0 9 6 8 5 5 4 0
0 0 0 0 2 0 2 1 0 1 1 1 0 1 1 1 1 2 1 3 3 4 4 1 0 0 1 1 3 3 0 0 0 0 3 0 2 3 0 10 7 4 3

GFSMA_con_mlcape_126.txt.gz
CAPE
2252 2075 1818 1632 1634 1701 1637 1635 1591 1493 1639 1749 1818 1775 1834 1616 1317 1016 883 824 539 512 723 1009 1221 1256 835 582 501 719 645 560 470 447 356 170 88 105 77 136 130 70 33
1827 1889 1802 1629 1520 1566 1471 1422 1413 1541 1321 1473 1717 1864 1743 1669 1580 1434 1162 1083 575 322 501 732 1006 1131 1212 873 426 617 717 585 560 426 399 188 85 48 76 136 128 60 31
686 1450 1911 1763 1698 1763 1474 1395 1416 1366 1322 1299 1292 1496 1870 1809 1426 1388 1586 1257 1030 389 253 349 519 639 628 956 581 443 478 586 581 474 344 222 115 41 28 63 103 60 28
0 2 170 487 387 405 618 1458 1385 1331 1213 1105 1113 1200 1372 1736 1723 1457 1467 1406 1263 1120 507 273 258 337 424 534 671 473 327 371 397 463 428 243 148 74 26 48 90 77 33
0 0 0 0 3 8 86 296 845 1172 1071 1060 1029 938 982 1199 1507 1282 1427 1406 1401 1404 1122 722 472 273 343 396 583 688 360 255 260 373 421 346 211 101 40 30 59 80 60
0 0 0 0 0 0 8 38 100 318 687 1124 962 805 650 772 1093 981 998 1065 1326 1408 1439 1176 908 812 302 337 404 552 617 511 314 323 381 398 298 155 64 24 54 67 56
1 0 0 0 0 0 0 1 1 14 492 641 516 590 606 578 288 439 66 4 56 544 1119 1316 1166 1314 813 304 306 417 632 779 652 344 261 270 328 228 91 46 43 71 69
1 2 3 1 0 1 2 0 0 0 1 298 430 499 222 174 108 38 0 0 6 148 375 960 1051 1040 1045 950 677 292 475 635 863 605 292 224 221 177 156 80 42 58 62
3 0 3 3 3 3 2 0 0 3 1 0 226 614 218 147 189 18 0 4 49 132 277 500 900 926 1096 975 862 624 329 411 666 765 468 244 206 166 174 89 63 45 59
2 2 4 4 5 4 4 4 4 4 4 3 1 34 456 273 63 28 286 239 264 340 463 380 398 480 466 979 843 596 340 154 312 466 548 326 293 268 222 137 74 57 57
1 2 4 1 5 4 4 4 4 3 2 4 5 4 0 128 361 371 30 327 420 408 369 475 523 560 485 649 768 708 325 146 63 150 241 323 312 286 237 204 105 70 75
0 2 3 1 4 5 4 4 4 4 3 3 2 4 6 3 13 63 42 54 63 210 425 473 583 645 641 672 617 434 364 144 6 31 63 133 260 238 216 221 188 102 65
1 3 2 3 3 2 3 4 3 3 3 3 3 3 2 5 1 7 3 52 43 32 58 301 464 678 814 829 772 415 243 94 9 0 0 50 126 219 237 225 184 134 81
4 1 2 4 4 4 4 4 3 4 6 1 4 3 3 3 4 6 11 18 9 29 30 51 166 369 663 694 717 364 458 36 0 0 0 0 12 51 120 147 165 115 100
1 4 5 5 4 4 4 3 3 2 4 4 4 3 3 3 3 4 0 28 19 16 8 65 120 168 201 282 496 589 556 181 0 0 0 0 8 19 21 53 81 90 75
3 3 5 6 4 5 4 4 4 5 4 2 3 4 3 2 2 3 4 6 13 17 11 11 6 36 160 168 209 396 546 180 0 0 0 0 0 2 2 11 36 61 50
4 5 5 6 4 4 3 5 3 2 3 3 2 2 4 2 5 6 4 6 17 21 13 28 27 21 40 130 188 268 385 265 94 0 0 0 0 0 0 0 0 3 19
2 1 2 4 3 3 3 3 3 3 2 1 2 3 3 1 6 6 8 6 1 17 13 14 6 7 10 14 80 254 416 129 148 15 0 0 0 0 0 0 0 0 0
1 0 1 3 3 3 3 4 3 2 1 1 1 1 2 3 6 8 9 10 9 5 2 25 8 8 6 4 17 163 165 273 36 13 0 0 0 0 0 0 0 0 0
0 0 1 1 1 1 1 2 3 2 2 2 2 1 2 2 3 5 6 8 8 7 4 3 7 27 19 1 43 117 67 19 2 2 0 0 0 0 0 0 0 0 0
0 0 0 0 0 0 1 3 3 2 1 1 1 2 3 5 3 2 3 4 6 10 10 8 2 2 17 22 15 5 14 10 5 11 2 0 0 0 0 0 0 0 0
0 0 0 0 0 0 0 0 0 1 1 1 1 2 1 2 1 1 2 2 2 8 11 11 11 9 4 0 3 30 22 35 16 0 1 1 0 0 1 1 0 0 0
0 1 0 0 0 0 0 0 0 1 1 2 1 1 0 3 2 1 0 1 2 3 3 4 8 7 8 8 7 5 3 58 32 4 1 1 0 1 0 0 0 0 0
1 1 0 1 0 0 0 0 0 1 3 2 2 2 1 1 1 1 0 1 1 1 1 1 2 2 2 4 5 7 3 2 1 0 1 0 0 0 0 1 2 1 0
0 0 0 0 0 0 0 0 0 0 0 0 2 1 0 0 1 0 0 3 3 2 1 0 1 3 3 3 4 4 1 1 0 0 0 0 0 0 1 2 8 5 4
1 0 0 0 0 0 0 0 0 0 0 0 0 0 0 0 0 0 0 2 0 3 2 1 0 1 1 1 1 2 5 2 4 0 3 1 0 1 0 4 8 5 4

GFSMA_con_mlcape_132.txt.gz
CAPE
1706 1960 1935 1953 1638 1471 1447 1364 1509 1698 1777 1463 1389 1570 1506 1651 1184 812 695 437 529 708 771 687 672 782 773 822 759 790 754 645 514 408 360 278 205 167 267 296 247 204 130
16 175 592 1536 1391 1115 1144 1192 1096 1044 1293 1501 1599 1511 1426 1333 1517 1482 989 470 366 536 652 706 713 918 970 856 633 664 743 693 578 475 379 299 214 131 108 158 242 250 165
0 0 1 12 29 85 184 308 558 833 773 868 930 936 1051 1273 1301 1386 1489 1142 333 309 462 557 541 835 1195 908 526 507 630 608 608 528 435 331 264 215 96 66 116 178 188
0 0 0 0 0 0 0 2 56 88 170 323 501 374 434 423 806 983 1175 1101 1149 483 272 326 367 392 877 1135 1292 775 575 527 461 550 459 377 289 240 169 56 61 78 94
0 0 0 0 0 0 0 0 23 63 128 115 76 90 148 245 0 4 255 691 859 956 522 223 178 254 463 503 782 1297 1027 640 471 409 451 377 309 253 210 107 28 37 26
0 0 0 0 0 0 0 0 0 0 0 0 0 42 151 198 151 136 22 235 640 125 0 5 75 208 211 330 502 559 916 1125 564 461 468 430 351 299 216 171 84 45 13
0 0 0 0 0 0 0 0 0 0 0 0 0 0 3 79 137 521 346 260 62 27 27 27 0 67 327 285 307 343 466 867 1040 579 548 427 386 341 261 205 170 103 33
0 0 0 1 1 1 0 0 1 0 0 0 0 0 0 0 91 376 471 340 245 95 9 0 0 1 60 424 98 216 429 568 788 991 718 411 340 342 300 231 203 171 108
0 0 1 0 0 0 0 0 0 0 0 0 0 2 3 0 0 0 58 257 361 204 99 3 8 38 79 343 491 396 269 220 662 851 1145 635 372 323 282 239 239 207 148
0 0 0 0 0 0 0 1 2 0 1 1 0 0 0 1 4 1 0 2 203 374 326 122 0 4 1 24 211 356 321 230 282 659 1018 931 507 334 283 243 245 247 199
0 0 0 0 0 0 0 1 1 0 1 1 1 2 2 1 0 4 2 0 0 0 128 385 235 85 13 8 80 117 96 168 161 251 546 964 863 587 404 280 229 239 234
0 0 0 0 0 0 1 0 2 1 0 0 1 4 2 4 3 5 3 0 3 0 0 0 40 182 197 130 74 94 76 45 47 47 164 524 714 785 611 473 281 204 207
0 1 1 0 0 1 0 0 1 1 1 0 1 1 1 1 2 3 3 3 4 1 1 0 0 0 305 625 502 399 334 224 150 97 99 173 396 623 520 493 420 252 199
0 2 2 1 0 1 0 1 0 1 0 1 1 0 1 2 1 1 5 3 2 0 2 2 0 0 0 4 437 390 368 144 44 62 75 77 157 309 345 303 313 285 220
2 0 1 2 0 3 1 2 3 1 1 0 0 1 1 1 0 2 2 4 5 2 2 0 3 0 0 0 16 108 321 317 30 0 0 23 119 139 212 223 202 148 198
0 0 0 3 0 0 1 0 1 0 0 0 1 0 1 1 1 1 1 2 4 5 5 2 1 1 1 1 16 27 23 23 3 0 2 0 2 38 51 33 59 59 138
1 0 1 1 0 0 0 1 1 0 0 0 1 0 0 1 1 1 1 2 2 2 6 2 0 0 0 0 1 5 9 40 62 0 0 0 0 0 0 0 0 8 27
0 0 0 0 0 0 0 1 1 2 2 1 3 0 0 1 1 1 1 2 3 1 3 4 3 1 2 1 0 0 0 1 13 36 6 0 0 0 0 0 0 0 0
0 0 0 0 0 0 0 0 0 0 0 0 0 0 0 1 1 1 1 2 2 2 2 4 4 0 0 0 0 0 0 0 0 0 0 0 1 0 0 0 0 0 0
0 0 0 0 0 0 0 0 0 0 1 1 0 2 0 1 1 1 1 1 1 1 2 3 3 4 3 2 2 1 0 0 0 0 0 0 0 0 0 0 0 0 0
0 0 0 0 0 0 0 0 2 0 0 0 0 0 0 0 0 1 2 1 1 2 2 2 4 3 4 4 4 4 3 2 0 1 0 0 0 0 0 0 0 0 0
0 0 0 0 0 0 0 0 0 0 0 0 0 0 0 0 0 0 0 1 1 1 1 2 2 3 2 1 2 4 5 5 0 0 2 0 0 0 3 0 0 0 0
0 0 0 0 0 0 0 0 1 0 0 0 0 0 0 0 0 0 0 0 0 0 0 0 0 0 1 1 1 2 2 4 3 0 1 2 0 1 2 1 2 0 0
0 0 0 0 0 0 0 0 0 0 2 0 0 0 0 0 0 0 0 0 0 0 0 0 0 0 0 1 2 1 1 0 0 0 0 0 0 0 0 0 0 0 0
0 0 0 0 0 0 0 0 0 0 0 0 0 0 0 0 0 0 0 0 0 0 0 1 2 1 1 1 2 1 1 2 2 0 0 1 0 0 0 0 0 0 1
0 0 0 0 0 0 0 0 0 0 0 0 0 0 0 0 0 0 0 0 0 0 0 0 0 0 0 0 2 0 0 1 1 0 0 1 0 1 0 0 0 0 0